2016 Cux-Wetter.de -Die Nutzung der Wetterdaten nur mit ausdrcklicher Genehmigung
Wetterdaten: Sonntag, 21.01.2018
Datum Zeit Temp. A. Feuchte A. Luftdruck Regen Wind Richtung Richtung Sonnenschein Solar Taupunkt Windchill Windben
21.01.2018 00:00 0,5 C 96 % 1001,4 hPa 0,0 l/m 0,7 km/h (0 Bft) S-SO 154 0 min 0 W/m -0,1 C 0,5 C 1,6 km/h (1 Bft)
21.01.2018 00:03 0,5 C 96 % 1001,4 hPa 0,0 l/m 0,3 km/h (0 Bft) S-SO 154 0 min 0 W/m -0,1 C 0,5 C 1,6 km/h (1 Bft)
21.01.2018 00:06 0,4 C 96 % 1001,4 hPa 0,0 l/m 1,2 km/h (1 Bft) S-SO 154 0 min 0 W/m -0,2 C 0,4 C 3,2 km/h (1 Bft)
21.01.2018 00:09 0,4 C 96 % 1001,5 hPa 0,0 l/m 0,5 km/h (0 Bft) S-SO 154 0 min 0 W/m -0,2 C 0,4 C 1,6 km/h (1 Bft)
21.01.2018 00:12 0,4 C 96 % 1001,5 hPa 0,0 l/m 0,7 km/h (0 Bft) S-SO 154 0 min 0 W/m -0,2 C 0,4 C 3,2 km/h (1 Bft)
21.01.2018 00:15 0,4 C 96 % 1001,6 hPa 0,0 l/m 0,9 km/h (0 Bft) S-SO 154 0 min 0 W/m -0,2 C 0,4 C 3,2 km/h (1 Bft)
21.01.2018 00:18 0,4 C 96 % 1001,7 hPa 0,0 l/m 0,3 km/h (0 Bft) S-SO 154 0 min 0 W/m -0,2 C 0,4 C 1,6 km/h (1 Bft)
21.01.2018 00:21 0,4 C 96 % 1001,7 hPa 0,0 l/m 0,8 km/h (0 Bft) S-SO 154 0 min 0 W/m -0,2 C 0,4 C 3,2 km/h (1 Bft)
21.01.2018 00:24 0,3 C 96 % 1001,7 hPa 0,0 l/m 0,3 km/h (0 Bft) S-SO 154 0 min 0 W/m -0,3 C 0,3 C 3,2 km/h (1 Bft)
21.01.2018 00:27 0,3 C 96 % 1001,7 hPa 0,0 l/m 0,2 km/h (0 Bft) S-SO 154 0 min 0 W/m -0,3 C 0,3 C 1,6 km/h (1 Bft)
21.01.2018 00:30 0,3 C 96 % 1001,7 hPa 0,0 l/m 0,5 km/h (0 Bft) S-SO 154 0 min 0 W/m -0,3 C 0,3 C 1,6 km/h (1 Bft)
21.01.2018 00:33 0,3 C 96 % 1001,8 hPa 0,0 l/m 0,1 km/h (0 Bft) S-SO 154 0 min 0 W/m -0,3 C 0,3 C 1,6 km/h (1 Bft)
21.01.2018 00:36 0,3 C 96 % 1001,8 hPa 0,0 l/m 0,9 km/h (0 Bft) S-SO 154 0 min 0 W/m -0,3 C 0,3 C 3,2 km/h (1 Bft)
21.01.2018 00:39 0,3 C 96 % 1001,8 hPa 0,0 l/m 0,8 km/h (0 Bft) S-SO 154 0 min 0 W/m -0,3 C 0,3 C 3,2 km/h (1 Bft)
21.01.2018 00:42 0,3 C 96 % 1001,9 hPa 0,0 l/m 0,6 km/h (0 Bft) S-SO 154 0 min 0 W/m -0,3 C 0,3 C 3,2 km/h (1 Bft)
21.01.2018 00:45 0,4 C 96 % 1001,9 hPa 0,0 l/m 0,3 km/h (0 Bft) S-SO 154 0 min 0 W/m -0,2 C 0,4 C 1,6 km/h (1 Bft)
21.01.2018 00:48 0,4 C 96 % 1001,9 hPa 0,0 l/m 0,4 km/h (0 Bft) S-SO 154 0 min 0 W/m -0,2 C 0,4 C 1,6 km/h (1 Bft)
21.01.2018 00:51 0,4 C 96 % 1002,0 hPa 0,0 l/m 0,4 km/h (0 Bft) S-SO 154 0 min 0 W/m -0,2 C 0,4 C 1,6 km/h (1 Bft)
21.01.2018 00:54 0,4 C 96 % 1002,0 hPa 0,0 l/m 1,0 km/h (0 Bft) S-SO 154 0 min 0 W/m -0,2 C 0,4 C 1,6 km/h (1 Bft)
21.01.2018 00:57 0,4 C 96 % 1002,0 hPa 0,0 l/m 0,5 km/h (0 Bft) S-SO 154 0 min 0 W/m -0,2 C 0,4 C 1,6 km/h (1 Bft)
21.01.2018 01:00 0,4 C 96 % 1002,0 hPa 0,0 l/m 0,4 km/h (0 Bft) S-SO 154 0 min 0 W/m -0,2 C 0,4 C 1,6 km/h (1 Bft)
21.01.2018 01:03 0,4 C 96 % 1002,0 hPa 0,0 l/m 0,1 km/h (0 Bft) S-SO 154 0 min 0 W/m -0,2 C 0,4 C 1,6 km/h (1 Bft)
21.01.2018 01:06 0,4 C 96 % 1002,1 hPa 0,0 l/m 0,8 km/h (0 Bft) S-SO 154 0 min 0 W/m -0,2 C 0,4 C 3,2 km/h (1 Bft)
21.01.2018 01:09 0,4 C 96 % 1002,1 hPa 0,0 l/m 0,7 km/h (0 Bft) S-SO 154 0 min 0 W/m -0,2 C 0,4 C 1,6 km/h (1 Bft)
21.01.2018 01:12 0,4 C 96 % 1002,2 hPa 0,0 l/m 1,0 km/h (0 Bft) S-SO 154 0 min 0 W/m -0,2 C 0,4 C 3,2 km/h (1 Bft)
21.01.2018 01:15 0,4 C 96 % 1002,2 hPa 0,0 l/m 0,8 km/h (0 Bft) S-SO 154 0 min 0 W/m -0,2 C 0,4 C 1,6 km/h (1 Bft)
21.01.2018 01:18 0,5 C 96 % 1002,3 hPa 0,0 l/m 1,1 km/h (1 Bft) S-SO 154 0 min 0 W/m -0,1 C 0,5 C 3,2 km/h (1 Bft)
21.01.2018 01:21 0,5 C 96 % 1002,3 hPa 0,0 l/m 0,1 km/h (0 Bft) S-SO 154 0 min 0 W/m -0,1 C 0,5 C 1,6 km/h (1 Bft)
21.01.2018 01:24 0,5 C 96 % 1002,4 hPa 0,0 l/m 0,1 km/h (0 Bft) S-SO 154 0 min 0 W/m -0,1 C 0,5 C 1,6 km/h (1 Bft)
21.01.2018 01:27 0,5 C 96 % 1002,5 hPa 0,0 l/m 0,6 km/h (0 Bft) S-SO 154 0 min 0 W/m -0,1 C 0,5 C 3,2 km/h (1 Bft)
21.01.2018 01:30 0,5 C 96 % 1002,5 hPa 0,0 l/m 2,3 km/h (1 Bft) S-SO 154 0 min 0 W/m -0,1 C 0,5 C 4,8 km/h (1 Bft)
21.01.2018 01:33 0,5 C 96 % 1002,6 hPa 0,0 l/m 0,4 km/h (0 Bft) S-SO 154 0 min 0 W/m -0,1 C 0,5 C 1,6 km/h (1 Bft)
21.01.2018 01:36 0,6 C 96 % 1002,6 hPa 0,0 l/m 0,2 km/h (0 Bft) S-SO 154 0 min 0 W/m 0,0 C 0,6 C 1,6 km/h (1 Bft)
21.01.2018 01:39 0,6 C 96 % 1002,7 hPa 0,0 l/m 1,5 km/h (1 Bft) S-SO 154 0 min 0 W/m 0,0 C 0,6 C 3,2 km/h (1 Bft)
21.01.2018 01:42 0,6 C 96 % 1002,7 hPa 0,0 l/m 2,5 km/h (1 Bft) S-SO 162 0 min 0 W/m 0,0 C 0,6 C 8,0 km/h (2 Bft)
21.01.2018 01:45 0,7 C 96 % 1002,8 hPa 0,0 l/m 3,8 km/h (1 Bft) S-SO 162 0 min 0 W/m 0,1 C 0,7 C 6,4 km/h (2 Bft)
21.01.2018 01:48 0,7 C 96 % 1002,8 hPa 0,0 l/m 2,4 km/h (1 Bft) S-SO 162 0 min 0 W/m 0,1 C 0,7 C 6,4 km/h (2 Bft)
21.01.2018 01:51 0,7 C 96 % 1002,8 hPa 0,0 l/m 2,8 km/h (1 Bft) S-SO 161 0 min 0 W/m 0,1 C 0,7 C 6,4 km/h (2 Bft)
21.01.2018 01:54 0,7 C 96 % 1002,9 hPa 0,0 l/m 3,6 km/h (1 Bft) S-SO 161 0 min 0 W/m 0,1 C 0,7 C 6,4 km/h (2 Bft)
21.01.2018 01:57 0,8 C 96 % 1003,0 hPa 0,0 l/m 2,8 km/h (1 Bft) S-SO 155 0 min 0 W/m 0,2 C 0,8 C 8,0 km/h (2 Bft)
21.01.2018 02:00 0,8 C 96 % 1002,9 hPa 0,0 l/m 1,9 km/h (1 Bft) S-SO 154 0 min 0 W/m 0,2 C 0,8 C 6,4 km/h (2 Bft)
21.01.2018 02:03 0,8 C 96 % 1003,1 hPa 0,0 l/m 0,8 km/h (0 Bft) S-SO 154 0 min 0 W/m 0,2 C 0,8 C 3,2 km/h (1 Bft)
21.01.2018 02:06 0,8 C 96 % 1003,1 hPa 0,0 l/m 1,9 km/h (1 Bft) S-SO 154 0 min 0 W/m 0,2 C 0,8 C 4,8 km/h (1 Bft)
21.01.2018 02:09 0,8 C 96 % 1003,1 hPa 0,0 l/m 2,5 km/h (1 Bft) S-SO 153 0 min 0 W/m 0,2 C 0,8 C 4,8 km/h (1 Bft)
21.01.2018 02:12 0,8 C 96 % 1003,1 hPa 0,0 l/m 0,7 km/h (0 Bft) S-SO 153 0 min 0 W/m 0,2 C 0,8 C 3,2 km/h (1 Bft)
21.01.2018 02:15 0,8 C 96 % 1003,2 hPa 0,0 l/m 1,1 km/h (1 Bft) SO 140 0 min 0 W/m 0,2 C 0,8 C 4,8 km/h (1 Bft)
21.01.2018 02:18 0,8 C 96 % 1003,3 hPa 0,0 l/m 1,3 km/h (1 Bft) SO 140 0 min 0 W/m 0,2 C 0,8 C 4,8 km/h (1 Bft)
21.01.2018 02:21 0,8 C 96 % 1003,3 hPa 0,0 l/m 0,6 km/h (0 Bft) SO 140 0 min 0 W/m 0,2 C 0,8 C 3,2 km/h (1 Bft)
21.01.2018 02:24 0,8 C 96 % 1003,4 hPa 0,0 l/m 1,1 km/h (1 Bft) SO 140 0 min 0 W/m 0,2 C 0,8 C 3,2 km/h (1 Bft)
21.01.2018 02:27 0,8 C 96 % 1003,4 hPa 0,0 l/m 2,1 km/h (1 Bft) SO 140 0 min 0 W/m 0,2 C 0,8 C 4,8 km/h (1 Bft)
21.01.2018 02:30 0,8 C 96 % 1003,5 hPa 0,0 l/m 1,6 km/h (1 Bft) SO 140 0 min 0 W/m 0,2 C 0,8 C 3,2 km/h (1 Bft)
21.01.2018 02:33 0,8 C 96 % 1003,5 hPa 0,0 l/m 2,6 km/h (1 Bft) SO 140 0 min 0 W/m 0,2 C 0,8 C 4,8 km/h (1 Bft)
21.01.2018 02:36 0,8 C 96 % 1003,6 hPa 0,0 l/m 1,9 km/h (1 Bft) SO 140 0 min 0 W/m 0,2 C 0,8 C 4,8 km/h (1 Bft)
21.01.2018 02:39 0,8 C 96 % 1003,6 hPa 0,0 l/m 3,0 km/h (1 Bft) SO 140 0 min 0 W/m 0,2 C 0,8 C 4,8 km/h (1 Bft)
21.01.2018 02:42 0,8 C 96 % 1003,7 hPa 0,0 l/m 2,2 km/h (1 Bft) SO 140 0 min 0 W/m 0,2 C 0,8 C 4,8 km/h (1 Bft)
21.01.2018 02:45 0,8 C 96 % 1003,7 hPa 0,0 l/m 2,4 km/h (1 Bft) SO 140 0 min 0 W/m 0,2 C 0,8 C 4,8 km/h (1 Bft)
21.01.2018 02:48 0,8 C 96 % 1003,8 hPa 0,0 l/m 2,6 km/h (1 Bft) SO 140 0 min 0 W/m 0,2 C 0,8 C 4,8 km/h (1 Bft)
21.01.2018 02:51 0,8 C 96 % 1003,8 hPa 0,0 l/m 2,7 km/h (1 Bft) SO 138 0 min 0 W/m 0,2 C 0,8 C 4,8 km/h (1 Bft)
21.01.2018 02:54 0,9 C 96 % 1003,9 hPa 0,0 l/m 2,8 km/h (1 Bft) SO 138 0 min 0 W/m 0,3 C 0,9 C 4,8 km/h (1 Bft)
21.01.2018 02:57 0,9 C 96 % 1003,9 hPa 0,0 l/m 3,3 km/h (1 Bft) SO 132 0 min 0 W/m 0,3 C 0,9 C 6,4 km/h (2 Bft)
21.01.2018 03:00 0,9 C 96 % 1003,9 hPa 0,0 l/m 2,9 km/h (1 Bft) SO 132 0 min 0 W/m 0,3 C 0,9 C 4,8 km/h (1 Bft)
21.01.2018 03:03 0,9 C 96 % 1004,0 hPa 0,0 l/m 3,6 km/h (1 Bft) S-SO 157 0 min 0 W/m 0,3 C 0,9 C 9,7 km/h (2 Bft)
21.01.2018 03:06 0,9 C 96 % 1004,0 hPa 0,0 l/m 1,6 km/h (1 Bft) S-SO 156 0 min 0 W/m 0,3 C 0,9 C 8,0 km/h (2 Bft)
21.01.2018 03:09 0,9 C 96 % 1004,1 hPa 0,0 l/m 2,1 km/h (1 Bft) SO 144 0 min 0 W/m 0,3 C 0,9 C 4,8 km/h (1 Bft)
21.01.2018 03:12 0,9 C 96 % 1004,1 hPa 0,0 l/m 2,6 km/h (1 Bft) SO 142 0 min 0 W/m 0,3 C 0,9 C 4,8 km/h (1 Bft)
21.01.2018 03:15 0,9 C 96 % 1004,1 hPa 0,0 l/m 2,9 km/h (1 Bft) SO 142 0 min 0 W/m 0,3 C 0,9 C 4,8 km/h (1 Bft)
21.01.2018 03:18 0,9 C 96 % 1004,2 hPa 0,0 l/m 2,7 km/h (1 Bft) SO 142 0 min 0 W/m 0,3 C 0,9 C 4,8 km/h (1 Bft)
21.01.2018 03:21 0,9 C 96 % 1004,2 hPa 0,0 l/m 2,4 km/h (1 Bft) SO 140 0 min 0 W/m 0,3 C 0,9 C 6,4 km/h (2 Bft)
21.01.2018 03:24 0,9 C 97 % 1004,2 hPa 0,0 l/m 3,6 km/h (1 Bft) SO 141 0 min 0 W/m 0,5 C 0,9 C 6,4 km/h (2 Bft)
21.01.2018 03:27 0,9 C 96 % 1004,2 hPa 0,0 l/m 3,2 km/h (1 Bft) SO 140 0 min 0 W/m 0,3 C 0,9 C 6,4 km/h (2 Bft)
21.01.2018 03:30 0,9 C 97 % 1004,3 hPa 0,0 l/m 2,5 km/h (1 Bft) SO 140 0 min 0 W/m 0,5 C 0,9 C 6,4 km/h (2 Bft)
21.01.2018 03:33 0,9 C 97 % 1004,3 hPa 0,0 l/m 2,3 km/h (1 Bft) SO 141 0 min 0 W/m 0,5 C 0,9 C 4,8 km/h (1 Bft)
21.01.2018 03:36 0,9 C 97 % 1004,3 hPa 0,0 l/m 1,4 km/h (1 Bft) SO 141 0 min 0 W/m 0,5 C 0,9 C 4,8 km/h (1 Bft)
21.01.2018 03:39 0,9 C 97 % 1004,4 hPa 0,0 l/m 1,9 km/h (1 Bft) SO 141 0 min 0 W/m 0,5 C 0,9 C 4,8 km/h (1 Bft)
21.01.2018 03:42 0,9 C 97 % 1004,4 hPa 0,0 l/m 2,4 km/h (1 Bft) SO 141 0 min 0 W/m 0,5 C 0,9 C 4,8 km/h (1 Bft)
21.01.2018 03:45 0,9 C 97 % 1004,4 hPa 0,0 l/m 1,6 km/h (1 Bft) SO 141 0 min 0 W/m 0,5 C 0,9 C 3,2 km/h (1 Bft)
21.01.2018 03:48 0,9 C 97 % 1004,5 hPa 0,0 l/m 2,2 km/h (1 Bft) SO 141 0 min 0 W/m 0,5 C 0,9 C 4,8 km/h (1 Bft)
21.01.2018 03:51 0,9 C 97 % 1004,5 hPa 0,0 l/m 1,0 km/h (0 Bft) SO 141 0 min 0 W/m 0,5 C 0,9 C 3,2 km/h (1 Bft)
21.01.2018 03:54 0,9 C 97 % 1004,6 hPa 0,0 l/m 0,5 km/h (0 Bft) SO 141 0 min 0 W/m 0,5 C 0,9 C 3,2 km/h (1 Bft)
21.01.2018 03:57 0,9 C 97 % 1004,7 hPa 0,0 l/m 0,7 km/h (0 Bft) SO 141 0 min 0 W/m 0,5 C 0,9 C 3,2 km/h (1 Bft)
21.01.2018 04:00 0,9 C 97 % 1004,7 hPa 0,0 l/m 1,1 km/h (1 Bft) SO 141 0 min 0 W/m 0,5 C 0,9 C 3,2 km/h (1 Bft)
21.01.2018 04:03 0,9 C 97 % 1004,8 hPa 0,0 l/m 0,8 km/h (0 Bft) SO 141 0 min 0 W/m 0,5 C 0,9 C 3,2 km/h (1 Bft)
21.01.2018 04:06 0,9 C 97 % 1004,8 hPa 0,0 l/m 0,3 km/h (0 Bft) SO 141 0 min 0 W/m 0,5 C 0,9 C 1,6 km/h (1 Bft)
21.01.2018 04:09 0,9 C 97 % 1004,9 hPa 0,0 l/m 0,7 km/h (0 Bft) SO 141 0 min 0 W/m 0,5 C 0,9 C 1,6 km/h (1 Bft)
21.01.2018 04:12 0,9 C 97 % 1004,9 hPa 0,0 l/m 0,1 km/h (0 Bft) SO 141 0 min 0 W/m 0,5 C 0,9 C 1,6 km/h (1 Bft)
21.01.2018 04:15 0,9 C 97 % 1004,9 hPa 0,0 l/m 0,1 km/h (0 Bft) SO 141 0 min 0 W/m 0,5 C 0,9 C 1,6 km/h (1 Bft)
21.01.2018 04:18 0,9 C 97 % 1004,9 hPa 0,0 l/m 0,8 km/h (0 Bft) SO 141 0 min 0 W/m 0,5 C 0,9 C 3,2 km/h (1 Bft)
21.01.2018 04:21 0,9 C 97 % 1005,0 hPa 0,0 l/m 0,3 km/h (0 Bft) SO 141 0 min 0 W/m 0,5 C 0,9 C 1,6 km/h (1 Bft)
21.01.2018 04:24 0,8 C 96 % 1005,0 hPa 0,2 l/m 0,7 km/h (0 Bft) SO 141 0 min 0 W/m 0,2 C 0,8 C 1,6 km/h (1 Bft)
21.01.2018 04:27 0,9 C 96 % 1005,1 hPa 0,0 l/m 0,7 km/h (0 Bft) SO 141 0 min 0 W/m 0,3 C 0,9 C 3,2 km/h (1 Bft)
21.01.2018 04:30 0,8 C 96 % 1005,2 hPa 0,0 l/m 0,1 km/h (0 Bft) SO 141 0 min 0 W/m 0,2 C 0,8 C 1,6 km/h (1 Bft)
21.01.2018 04:33 0,8 C 96 % 1005,2 hPa 0,0 l/m 0,6 km/h (0 Bft) SO 141 0 min 0 W/m 0,2 C 0,8 C 3,2 km/h (1 Bft)
21.01.2018 04:36 0,8 C 96 % 1005,4 hPa 0,0 l/m 0,2 km/h (0 Bft) SO 141 0 min 0 W/m 0,2 C 0,8 C 1,6 km/h (1 Bft)
21.01.2018 04:39 0,8 C 96 % 1005,4 hPa 0,0 l/m 0,0 km/h (0 Bft) SO 141 0 min 0 W/m 0,2 C 0,8 C 0,0 km/h (0 Bft)
21.01.2018 04:42 0,8 C 96 % 1005,4 hPa 0,0 l/m 0,2 km/h (0 Bft) SO 141 0 min 0 W/m 0,2 C 0,8 C 3,2 km/h (1 Bft)
21.01.2018 04:45 0,8 C 96 % 1005,5 hPa 0,0 l/m 1,7 km/h (1 Bft) SO 141 0 min 0 W/m 0,2 C 0,8 C 3,2 km/h (1 Bft)
21.01.2018 04:48 0,8 C 96 % 1005,6 hPa 0,0 l/m 1,5 km/h (1 Bft) SO 141 0 min 0 W/m 0,2 C 0,8 C 3,2 km/h (1 Bft)
21.01.2018 04:51 0,8 C 96 % 1005,6 hPa 0,0 l/m 1,6 km/h (1 Bft) SO 141 0 min 0 W/m 0,2 C 0,8 C 3,2 km/h (1 Bft)
21.01.2018 04:54 0,8 C 96 % 1005,6 hPa 0,0 l/m 2,0 km/h (1 Bft) SO 141 0 min 0 W/m 0,2 C 0,8 C 4,8 km/h (1 Bft)
21.01.2018 04:57 0,8 C 96 % 1005,7 hPa 0,0 l/m 1,8 km/h (1 Bft) SO 141 0 min 0 W/m 0,2 C 0,8 C 4,8 km/h (1 Bft)
21.01.2018 05:00 0,8 C 96 % 1005,7 hPa 0,0 l/m 2,2 km/h (1 Bft) SO 140 0 min 0 W/m 0,2 C 0,8 C 8,0 km/h (2 Bft)
21.01.2018 05:03 0,8 C 96 % 1005,8 hPa 0,0 l/m 2,7 km/h (1 Bft) SO 138 0 min 0 W/m 0,2 C 0,8 C 4,8 km/h (1 Bft)
21.01.2018 05:06 0,8 C 96 % 1005,9 hPa 0,0 l/m 1,5 km/h (1 Bft) SO 138 0 min 0 W/m 0,2 C 0,8 C 3,2 km/h (1 Bft)
21.01.2018 05:09 0,8 C 96 % 1005,9 hPa 0,0 l/m 1,5 km/h (1 Bft) SO 138 0 min 0 W/m 0,2 C 0,8 C 3,2 km/h (1 Bft)
21.01.2018 05:12 0,8 C 96 % 1005,9 hPa 0,0 l/m 1,3 km/h (1 Bft) SO 138 0 min 0 W/m 0,2 C 0,8 C 3,2 km/h (1 Bft)
21.01.2018 05:15 0,8 C 96 % 1006,0 hPa 0,0 l/m 1,9 km/h (1 Bft) SO 138 0 min 0 W/m 0,2 C 0,8 C 4,8 km/h (1 Bft)
21.01.2018 05:18 0,8 C 96 % 1006,0 hPa 0,0 l/m 2,0 km/h (1 Bft) SO 138 0 min 0 W/m 0,2 C 0,8 C 3,2 km/h (1 Bft)
21.01.2018 05:21 0,8 C 96 % 1006,1 hPa 0,0 l/m 1,1 km/h (1 Bft) SO 138 0 min 0 W/m 0,2 C 0,8 C 3,2 km/h (1 Bft)
21.01.2018 05:24 0,8 C 97 % 1006,2 hPa 0,0 l/m 1,8 km/h (1 Bft) SO 138 0 min 0 W/m 0,4 C 0,8 C 3,2 km/h (1 Bft)
21.01.2018 05:27 0,8 C 97 % 1006,2 hPa 0,0 l/m 0,2 km/h (0 Bft) SO 138 0 min 0 W/m 0,4 C 0,8 C 1,6 km/h (1 Bft)
21.01.2018 05:30 0,8 C 97 % 1006,2 hPa 0,0 l/m 1,6 km/h (1 Bft) SO 138 0 min 0 W/m 0,4 C 0,8 C 3,2 km/h (1 Bft)
21.01.2018 05:33 0,8 C 97 % 1006,3 hPa 0,0 l/m 2,2 km/h (1 Bft) SO 138 0 min 0 W/m 0,4 C 0,8 C 3,2 km/h (1 Bft)
21.01.2018 05:36 0,8 C 97 % 1006,3 hPa 0,0 l/m 2,1 km/h (1 Bft) SO 138 0 min 0 W/m 0,4 C 0,8 C 3,2 km/h (1 Bft)
21.01.2018 05:39 0,8 C 97 % 1006,4 hPa 0,0 l/m 1,7 km/h (1 Bft) SO 138 0 min 0 W/m 0,4 C 0,8 C 3,2 km/h (1 Bft)
21.01.2018 05:42 0,8 C 97 % 1006,4 hPa 0,0 l/m 2,6 km/h (1 Bft) SO 138 0 min 0 W/m 0,4 C 0,8 C 4,8 km/h (1 Bft)
21.01.2018 05:45 0,8 C 97 % 1006,5 hPa 0,0 l/m 2,4 km/h (1 Bft) SO 138 0 min 0 W/m 0,4 C 0,8 C 4,8 km/h (1 Bft)
21.01.2018 05:48 0,8 C 97 % 1006,5 hPa 0,0 l/m 0,4 km/h (0 Bft) SO 138 0 min 0 W/m 0,4 C 0,8 C 1,6 km/h (1 Bft)
21.01.2018 05:51 0,8 C 97 % 1006,6 hPa 0,0 l/m 0,1 km/h (0 Bft) SO 138 0 min 0 W/m 0,4 C 0,8 C 1,6 km/h (1 Bft)
21.01.2018 05:54 0,8 C 97 % 1006,6 hPa 0,0 l/m 0,0 km/h (0 Bft) SO 138 0 min 0 W/m 0,4 C 0,8 C 0,0 km/h (0 Bft)
21.01.2018 05:57 0,8 C 97 % 1006,7 hPa 0,0 l/m 0,0 km/h (0 Bft) SO 138 0 min 0 W/m 0,4 C 0,8 C 0,0 km/h (0 Bft)
21.01.2018 06:00 0,8 C 97 % 1006,7 hPa 0,0 l/m 0,0 km/h (0 Bft) SO 138 0 min 0 W/m 0,4 C 0,8 C 0,0 km/h (0 Bft)
21.01.2018 06:03 0,8 C 97 % 1006,8 hPa 0,0 l/m 0,1 km/h (0 Bft) SO 138 0 min 0 W/m 0,4 C 0,8 C 1,6 km/h (1 Bft)
21.01.2018 06:06 0,8 C 97 % 1006,8 hPa 0,0 l/m 0,4 km/h (0 Bft) SO 138 0 min 0 W/m 0,4 C 0,8 C 1,6 km/h (1 Bft)
21.01.2018 06:09 0,8 C 97 % 1006,8 hPa 0,0 l/m 0,2 km/h (0 Bft) SO 138 0 min 0 W/m 0,4 C 0,8 C 1,6 km/h (1 Bft)
21.01.2018 06:12 0,8 C 97 % 1006,9 hPa 0,0 l/m 0,0 km/h (0 Bft) SO 138 0 min 0 W/m 0,4 C 0,8 C 0,0 km/h (0 Bft)
21.01.2018 06:15 0,8 C 97 % 1007,0 hPa 0,0 l/m 0,0 km/h (0 Bft) SO 138 0 min 0 W/m 0,4 C 0,8 C 0,0 km/h (0 Bft)
21.01.2018 06:18 0,8 C 97 % 1007,0 hPa 0,0 l/m 0,0 km/h (0 Bft) SO 138 0 min 0 W/m 0,4 C 0,8 C 0,0 km/h (0 Bft)
21.01.2018 06:21 0,8 C 97 % 1007,0 hPa 0,0 l/m 0,0 km/h (0 Bft) SO 138 0 min 0 W/m 0,4 C 0,8 C 0,0 km/h (0 Bft)
21.01.2018 06:24 0,9 C 97 % 1007,1 hPa 0,0 l/m 0,0 km/h (0 Bft) SO 138 0 min 0 W/m 0,5 C 0,9 C 0,0 km/h (0 Bft)
21.01.2018 06:27 0,9 C 97 % 1007,1 hPa 0,0 l/m 0,0 km/h (0 Bft) SO 138 0 min 0 W/m 0,5 C 0,9 C 0,0 km/h (0 Bft)
21.01.2018 06:30 0,9 C 97 % 1007,1 hPa 0,0 l/m 0,0 km/h (0 Bft) SO 138 0 min 0 W/m 0,5 C 0,9 C 0,0 km/h (0 Bft)
21.01.2018 06:33 0,9 C 97 % 1007,1 hPa 0,0 l/m 0,0 km/h (0 Bft) SO 138 0 min 0 W/m 0,5 C 0,9 C 0,0 km/h (0 Bft)
21.01.2018 06:36 0,9 C 97 % 1007,2 hPa 0,0 l/m 0,0 km/h (0 Bft) SO 138 0 min 0 W/m 0,5 C 0,9 C 0,0 km/h (0 Bft)
21.01.2018 06:39 0,9 C 97 % 1007,2 hPa 0,0 l/m 0,0 km/h (0 Bft) SO 138 0 min 0 W/m 0,5 C 0,9 C 0,0 km/h (0 Bft)
21.01.2018 06:42 0,9 C 97 % 1007,2 hPa 0,0 l/m 0,0 km/h (0 Bft) SO 138 0 min 0 W/m 0,5 C 0,9 C 0,0 km/h (0 Bft)
21.01.2018 06:45 0,9 C 97 % 1007,3 hPa 0,0 l/m 0,0 km/h (0 Bft) SO 138 0 min 0 W/m 0,5 C 0,9 C 0,0 km/h (0 Bft)
21.01.2018 06:48 0,9 C 97 % 1007,3 hPa 0,0 l/m 0,0 km/h (0 Bft) SO 138 0 min 0 W/m 0,5 C 0,9 C 0,0 km/h (0 Bft)
21.01.2018 06:51 0,9 C 97 % 1007,5 hPa 0,0 l/m 0,0 km/h (0 Bft) SO 138 0 min 0 W/m 0,5 C 0,9 C 0,0 km/h (0 Bft)
21.01.2018 06:54 0,9 C 97 % 1007,4 hPa 0,0 l/m 0,0 km/h (0 Bft) SO 138 0 min 0 W/m 0,5 C 0,9 C 0,0 km/h (0 Bft)
21.01.2018 06:57 0,9 C 97 % 1007,5 hPa 0,0 l/m 0,0 km/h (0 Bft) SO 138 0 min 0 W/m 0,5 C 0,9 C 0,0 km/h (0 Bft)
21.01.2018 07:00 0,9 C 97 % 1007,6 hPa 0,2 l/m 0,0 km/h (0 Bft) SO 138 0 min 0 W/m 0,5 C 0,9 C 1,6 km/h (1 Bft)
21.01.2018 07:03 0,9 C 97 % 1007,6 hPa 0,0 l/m 0,0 km/h (0 Bft) SO 138 0 min 0 W/m 0,5 C 0,9 C 0,0 km/h (0 Bft)
21.01.2018 07:06 0,9 C 97 % 1007,7 hPa 0,0 l/m 0,0 km/h (0 Bft) SO 138 0 min 0 W/m 0,5 C 0,9 C 0,0 km/h (0 Bft)
21.01.2018 07:09 1,0 C 97 % 1007,8 hPa 0,0 l/m 0,0 km/h (0 Bft) SO 138 0 min 0 W/m 0,6 C 1,0 C 0,0 km/h (0 Bft)
21.01.2018 07:12 1,0 C 97 % 1007,8 hPa 0,0 l/m 0,0 km/h (0 Bft) SO 138 0 min 0 W/m 0,6 C 1,0 C 0,0 km/h (0 Bft)
21.01.2018 07:15 1,0 C 97 % 1007,9 hPa 0,0 l/m 0,0 km/h (0 Bft) SO 138 0 min 0 W/m 0,6 C 1,0 C 0,0 km/h (0 Bft)
21.01.2018 07:18 1,0 C 97 % 1008,0 hPa 0,0 l/m 0,0 km/h (0 Bft) SO 138 0 min 0 W/m 0,6 C 1,0 C 0,0 km/h (0 Bft)
21.01.2018 07:21 0,9 C 97 % 1008,0 hPa 0,0 l/m 0,0 km/h (0 Bft) SO 138 0 min 0 W/m 0,5 C 0,9 C 0,0 km/h (0 Bft)
21.01.2018 07:24 0,9 C 97 % 1008,1 hPa 0,0 l/m 0,0 km/h (0 Bft) SO 138 0 min 0 W/m 0,5 C 0,9 C 0,0 km/h (0 Bft)
21.01.2018 07:27 0,9 C 97 % 1008,2 hPa 0,0 l/m 0,0 km/h (0 Bft) SO 138 0 min 0 W/m 0,5 C 0,9 C 0,0 km/h (0 Bft)
21.01.2018 07:30 0,9 C 97 % 1008,3 hPa 0,0 l/m 0,0 km/h (0 Bft) SO 138 0 min 0 W/m 0,5 C 0,9 C 0,0 km/h (0 Bft)
21.01.2018 07:33 0,9 C 97 % 1008,3 hPa 0,0 l/m 0,0 km/h (0 Bft) SO 138 0 min 0 W/m 0,5 C 0,9 C 0,0 km/h (0 Bft)
21.01.2018 07:36 0,9 C 97 % 1008,4 hPa 0,0 l/m 0,0 km/h (0 Bft) SO 138 0 min 0 W/m 0,5 C 0,9 C 0,0 km/h (0 Bft)
21.01.2018 07:39 0,9 C 97 % 1008,4 hPa 0,0 l/m 0,5 km/h (0 Bft) SO 138 0 min 0 W/m 0,5 C 0,9 C 1,6 km/h (1 Bft)
21.01.2018 07:42 0,9 C 97 % 1008,4 hPa 0,0 l/m 0,0 km/h (0 Bft) SO 138 0 min 0 W/m 0,5 C 0,9 C 0,0 km/h (0 Bft)
21.01.2018 07:45 0,9 C 97 % 1008,5 hPa 0,0 l/m 0,0 km/h (0 Bft) SO 138 0 min 0 W/m 0,5 C 0,9 C 0,0 km/h (0 Bft)
21.01.2018 07:48 0,9 C 97 % 1008,6 hPa 0,0 l/m 0,0 km/h (0 Bft) SO 138 0 min 0 W/m 0,5 C 0,9 C 0,0 km/h (0 Bft)
21.01.2018 07:51 0,9 C 97 % 1008,5 hPa 0,0 l/m 0,0 km/h (0 Bft) SO 138 0 min 0 W/m 0,5 C 0,9 C 0,0 km/h (0 Bft)
21.01.2018 07:54 0,9 C 97 % 1008,6 hPa 0,0 l/m 0,0 km/h (0 Bft) SO 138 0 min 0 W/m 0,5 C 0,9 C 0,0 km/h (0 Bft)
21.01.2018 07:57 0,9 C 97 % 1008,7 hPa 0,0 l/m 0,0 km/h (0 Bft) SO 138 0 min 0 W/m 0,5 C 0,9 C 0,0 km/h (0 Bft)
21.01.2018 08:00 0,8 C 97 % 1008,8 hPa 0,0 l/m 0,0 km/h (0 Bft) SO 138 0 min 0 W/m 0,4 C 0,8 C 0,0 km/h (0 Bft)
21.01.2018 08:03 0,8 C 97 % 1008,8 hPa 0,0 l/m 0,0 km/h (0 Bft) SO 138 0 min 0 W/m 0,4 C 0,8 C 0,0 km/h (0 Bft)
21.01.2018 08:06 0,8 C 97 % 1008,9 hPa 0,0 l/m 0,0 km/h (0 Bft) SO 138 0 min 0 W/m 0,4 C 0,8 C 0,0 km/h (0 Bft)
21.01.2018 08:09 0,8 C 97 % 1009,0 hPa 0,0 l/m 0,0 km/h (0 Bft) SO 138 0 min 0 W/m 0,4 C 0,8 C 0,0 km/h (0 Bft)
21.01.2018 08:12 0,8 C 97 % 1009,1 hPa 0,0 l/m 0,0 km/h (0 Bft) SO 138 0 min 0 W/m 0,4 C 0,8 C 0,0 km/h (0 Bft)
21.01.2018 08:15 0,8 C 97 % 1009,1 hPa 0,0 l/m 0,0 km/h (0 Bft) SO 138 0 min 0 W/m 0,4 C 0,8 C 0,0 km/h (0 Bft)
21.01.2018 08:18 0,8 C 97 % 1009,2 hPa 0,0 l/m 0,0 km/h (0 Bft) SO 138 0 min 0 W/m 0,4 C 0,8 C 0,0 km/h (0 Bft)
21.01.2018 08:21 0,8 C 97 % 1009,3 hPa 0,0 l/m 0,0 km/h (0 Bft) SO 138 0 min 0 W/m 0,4 C 0,8 C 0,0 km/h (0 Bft)
21.01.2018 08:24 0,8 C 97 % 1009,3 hPa 0,0 l/m 0,0 km/h (0 Bft) SO 138 0 min 0 W/m 0,4 C 0,8 C 0,0 km/h (0 Bft)
21.01.2018 08:27 0,8 C 97 % 1009,3 hPa 0,0 l/m 0,0 km/h (0 Bft) SO 138 0 min 0 W/m 0,4 C 0,8 C 0,0 km/h (0 Bft)
21.01.2018 08:30 0,8 C 97 % 1009,3 hPa 0,0 l/m 0,0 km/h (0 Bft) SO 138 0 min 0 W/m 0,4 C 0,8 C 0,0 km/h (0 Bft)
21.01.2018 08:33 0,8 C 97 % 1009,4 hPa 0,0 l/m 0,0 km/h (0 Bft) SO 138 0 min 0 W/m 0,4 C 0,8 C 0,0 km/h (0 Bft)
21.01.2018 08:36 0,8 C 97 % 1009,5 hPa 0,0 l/m 1,5 km/h (1 Bft) SO 138 0 min 0 W/m 0,4 C 0,8 C 3,2 km/h (1 Bft)
21.01.2018 08:39 0,8 C 97 % 1009,6 hPa 0,0 l/m 2,6 km/h (1 Bft) SO 138 0 min 0 W/m 0,4 C 0,8 C 4,8 km/h (1 Bft)
21.01.2018 08:42 0,8 C 97 % 1009,7 hPa 0,0 l/m 1,4 km/h (1 Bft) SO 138 0 min 0 W/m 0,4 C 0,8 C 3,2 km/h (1 Bft)
21.01.2018 08:45 0,8 C 97 % 1009,8 hPa 0,0 l/m 0,3 km/h (0 Bft) SO 138 0 min 0 W/m 0,4 C 0,8 C 1,6 km/h (1 Bft)
21.01.2018 08:48 0,8 C 97 % 1009,8 hPa 0,0 l/m 0,2 km/h (0 Bft) SO 138 0 min 5 W/m 0,4 C 0,8 C 1,6 km/h (1 Bft)
21.01.2018 08:51 0,8 C 97 % 1009,9 hPa 0,0 l/m 0,6 km/h (0 Bft) SO 138 0 min 7 W/m 0,4 C 0,8 C 1,6 km/h (1 Bft)
21.01.2018 08:54 0,8 C 97 % 1010,0 hPa 0,0 l/m 0,0 km/h (0 Bft) SO 138 0 min 5 W/m 0,4 C 0,8 C 0,0 km/h (0 Bft)
21.01.2018 08:57 0,8 C 97 % 1010,1 hPa 0,0 l/m 0,0 km/h (0 Bft) SO 138 0 min 5 W/m 0,4 C 0,8 C 0,0 km/h (0 Bft)
21.01.2018 09:00 0,8 C 97 % 1010,2 hPa 0,0 l/m 0,0 km/h (0 Bft) SO 138 0 min 5 W/m 0,4 C 0,8 C 0,0 km/h (0 Bft)
21.01.2018 09:03 0,8 C 97 % 1010,2 hPa 0,0 l/m 0,0 km/h (0 Bft) SO 138 0 min 5 W/m 0,4 C 0,8 C 0,0 km/h (0 Bft)
21.01.2018 09:06 0,8 C 97 % 1010,2 hPa 0,0 l/m 0,0 km/h (0 Bft) SO 138 0 min 7 W/m 0,4 C 0,8 C 0,0 km/h (0 Bft)
21.01.2018 09:09 0,8 C 97 % 1010,3 hPa 0,0 l/m 0,4 km/h (0 Bft) SO 138 0 min 7 W/m 0,4 C 0,8 C 3,2 km/h (1 Bft)
21.01.2018 09:12 0,8 C 97 % 1010,4 hPa 0,0 l/m 0,8 km/h (0 Bft) SO 138 0 min 5 W/m 0,4 C 0,8 C 3,2 km/h (1 Bft)
21.01.2018 09:15 0,9 C 97 % 1010,4 hPa 0,0 l/m 1,1 km/h (1 Bft) SO 138 0 min 5 W/m 0,5 C 0,9 C 3,2 km/h (1 Bft)
21.01.2018 09:18 0,9 C 97 % 1010,5 hPa 0,0 l/m 0,3 km/h (0 Bft) SO 138 0 min 7 W/m 0,5 C 0,9 C 3,2 km/h (1 Bft)
21.01.2018 09:21 0,9 C 97 % 1010,5 hPa 0,0 l/m 0,1 km/h (0 Bft) SO 138 0 min 7 W/m 0,5 C 0,9 C 1,6 km/h (1 Bft)
21.01.2018 09:24 0,9 C 97 % 1010,6 hPa 0,0 l/m 0,0 km/h (0 Bft) SO 138 0 min 11 W/m 0,5 C 0,9 C 0,0 km/h (0 Bft)
21.01.2018 09:27 0,9 C 97 % 1010,7 hPa 0,0 l/m 0,4 km/h (0 Bft) SO 138 0 min 14 W/m 0,5 C 0,9 C 1,6 km/h (1 Bft)
21.01.2018 09:30 1,0 C 97 % 1010,7 hPa 0,0 l/m 0,6 km/h (0 Bft) SO 138 0 min 18 W/m 0,6 C 1,0 C 1,6 km/h (1 Bft)
21.01.2018 09:33 1,0 C 97 % 1010,8 hPa 0,0 l/m 1,0 km/h (0 Bft) SO 138 0 min 21 W/m 0,6 C 1,0 C 1,6 km/h (1 Bft)
21.01.2018 09:36 1,0 C 97 % 1010,8 hPa 0,0 l/m 1,5 km/h (1 Bft) SO 138 0 min 19 W/m 0,6 C 1,0 C 3,2 km/h (1 Bft)
21.01.2018 09:39 1,1 C 97 % 1010,8 hPa 0,0 l/m 0,2 km/h (0 Bft) SO 138 0 min 16 W/m 0,7 C 1,1 C 1,6 km/h (1 Bft)
21.01.2018 09:42 1,1 C 97 % 1010,9 hPa 0,0 l/m 0,2 km/h (0 Bft) SO 138 0 min 16 W/m 0,7 C 1,1 C 3,2 km/h (1 Bft)
21.01.2018 09:45 1,1 C 97 % 1011,0 hPa 0,0 l/m 0,6 km/h (0 Bft) SO 138 0 min 12 W/m 0,7 C 1,1 C 1,6 km/h (1 Bft)
21.01.2018 09:48 1,1 C 97 % 1011,1 hPa 0,0 l/m 1,6 km/h (1 Bft) SO 138 0 min 14 W/m 0,7 C 1,1 C 3,2 km/h (1 Bft)
21.01.2018 09:51 1,1 C 97 % 1011,1 hPa 0,0 l/m 0,6 km/h (0 Bft) SO 138 0 min 16 W/m 0,7 C 1,1 C 1,6 km/h (1 Bft)
21.01.2018 09:54 1,1 C 97 % 1011,0 hPa 0,0 l/m 0,7 km/h (0 Bft) SO 138 0 min 18 W/m 0,7 C 1,1 C 1,6 km/h (1 Bft)
21.01.2018 09:57 1,1 C 97 % 1011,0 hPa 0,0 l/m 0,0 km/h (0 Bft) SO 138 0 min 18 W/m 0,7 C 1,1 C 0,0 km/h (0 Bft)
21.01.2018 10:00 1,1 C 97 % 1011,0 hPa 0,0 l/m 0,1 km/h (0 Bft) SO 138 0 min 18 W/m 0,7 C 1,1 C 1,6 km/h (1 Bft)
21.01.2018 10:03 1,1 C 97 % 1011,1 hPa 0,0 l/m 0,3 km/h (0 Bft) SO 138 0 min 18 W/m 0,7 C 1,1 C 1,6 km/h (1 Bft)
21.01.2018 10:06 1,1 C 97 % 1011,1 hPa 0,0 l/m 0,0 km/h (0 Bft) SO 138 0 min 21 W/m 0,7 C 1,1 C 1,6 km/h (1 Bft)
21.01.2018 10:09 1,2 C 97 % 1011,1 hPa 0,0 l/m 0,1 km/h (0 Bft) SO 138 0 min 26 W/m 0,8 C 1,2 C 1,6 km/h (1 Bft)
21.01.2018 10:12 1,2 C 97 % 1011,2 hPa 0,0 l/m 0,5 km/h (0 Bft) SO 138 0 min 25 W/m 0,8 C 1,2 C 1,6 km/h (1 Bft)
21.01.2018 10:15 1,2 C 97 % 1011,3 hPa 0,0 l/m 0,9 km/h (0 Bft) SO 138 0 min 23 W/m 0,8 C 1,2 C 3,2 km/h (1 Bft)
21.01.2018 10:18 1,2 C 97 % 1011,3 hPa 0,0 l/m 1,0 km/h (0 Bft) SO 138 0 min 28 W/m 0,8 C 1,2 C 3,2 km/h (1 Bft)
21.01.2018 10:21 1,2 C 97 % 1011,4 hPa 0,0 l/m 0,5 km/h (0 Bft) SO 138 0 min 37 W/m 0,8 C 1,2 C 3,2 km/h (1 Bft)
21.01.2018 10:24 1,3 C 97 % 1011,4 hPa 0,0 l/m 1,5 km/h (1 Bft) SO 138 0 min 39 W/m 0,9 C 1,3 C 3,2 km/h (1 Bft)
21.01.2018 10:27 1,3 C 97 % 1011,4 hPa 0,0 l/m 0,8 km/h (0 Bft) SO 138 0 min 39 W/m 0,9 C 1,3 C 3,2 km/h (1 Bft)
21.01.2018 10:30 1,3 C 97 % 1011,5 hPa 0,0 l/m 1,2 km/h (1 Bft) SO 138 0 min 42 W/m 0,9 C 1,3 C 3,2 km/h (1 Bft)
21.01.2018 10:33 1,4 C 97 % 1011,4 hPa 0,0 l/m 0,9 km/h (0 Bft) SO 138 0 min 42 W/m 1,0 C 1,4 C 1,6 km/h (1 Bft)
21.01.2018 10:36 1,5 C 97 % 1011,5 hPa 0,0 l/m 1,6 km/h (1 Bft) SO 138 0 min 42 W/m 1,1 C 1,5 C 3,2 km/h (1 Bft)
21.01.2018 10:39 1,6 C 97 % 1011,5 hPa 0,0 l/m 0,2 km/h (0 Bft) SO 138 0 min 44 W/m 1,2 C 1,6 C 1,6 km/h (1 Bft)
21.01.2018 10:42 1,6 C 97 % 1011,6 hPa 0,0 l/m 1,3 km/h (1 Bft) SO 138 0 min 47 W/m 1,2 C 1,6 C 3,2 km/h (1 Bft)
21.01.2018 10:45 1,6 C 97 % 1011,8 hPa 0,0 l/m 1,6 km/h (1 Bft) SO 138 0 min 58 W/m 1,2 C 1,6 C 3,2 km/h (1 Bft)
21.01.2018 10:48 1,6 C 97 % 1011,7 hPa 0,0 l/m 2,1 km/h (1 Bft) SO 138 0 min 62 W/m 1,2 C 1,6 C 4,8 km/h (1 Bft)
21.01.2018 10:51 1,6 C 97 % 1011,8 hPa 0,0 l/m 3,3 km/h (1 Bft) SO 139 0 min 60 W/m 1,2 C 1,6 C 4,8 km/h (1 Bft)
21.01.2018 10:54 1,6 C 97 % 1011,9 hPa 0,0 l/m 2,4 km/h (1 Bft) SO 139 0 min 56 W/m 1,2 C 1,6 C 4,8 km/h (1 Bft)
21.01.2018 10:57 1,6 C 97 % 1011,9 hPa 0,0 l/m 2,4 km/h (1 Bft) SO 139 0 min 56 W/m 1,2 C 1,6 C 4,8 km/h (1 Bft)
21.01.2018 11:00 1,6 C 97 % 1012,0 hPa 0,0 l/m 2,2 km/h (1 Bft) SO 139 0 min 67 W/m 1,2 C 1,6 C 4,8 km/h (1 Bft)
21.01.2018 11:03 1,6 C 97 % 1012,1 hPa 0,0 l/m 2,8 km/h (1 Bft) SO 139 0 min 63 W/m 1,2 C 1,6 C 4,8 km/h (1 Bft)
21.01.2018 11:06 1,6 C 97 % 1012,1 hPa 0,0 l/m 2,4 km/h (1 Bft) SO 139 0 min 60 W/m 1,2 C 1,6 C 4,8 km/h (1 Bft)
21.01.2018 11:09 1,6 C 97 % 1012,2 hPa 0,0 l/m 1,9 km/h (1 Bft) SO 139 0 min 69 W/m 1,2 C 1,6 C 4,8 km/h (1 Bft)
21.01.2018 11:12 1,7 C 97 % 1012,2 hPa 0,0 l/m 2,7 km/h (1 Bft) SO 139 0 min 65 W/m 1,3 C 1,7 C 4,8 km/h (1 Bft)
21.01.2018 11:15 1,7 C 97 % 1012,3 hPa 0,0 l/m 2,4 km/h (1 Bft) SO 139 0 min 67 W/m 1,3 C 1,7 C 4,8 km/h (1 Bft)
21.01.2018 11:18 1,7 C 97 % 1012,3 hPa 0,0 l/m 2,4 km/h (1 Bft) SO 139 0 min 72 W/m 1,3 C 1,7 C 4,8 km/h (1 Bft)
21.01.2018 11:21 1,8 C 97 % 1012,3 hPa 0,0 l/m 0,8 km/h (0 Bft) SO 139 0 min 76 W/m 1,4 C 1,8 C 3,2 km/h (1 Bft)
21.01.2018 11:24 1,8 C 97 % 1012,4 hPa 0,0 l/m 1,0 km/h (0 Bft) SO 139 0 min 86 W/m 1,4 C 1,8 C 4,8 km/h (1 Bft)
21.01.2018 11:27 1,9 C 97 % 1012,4 hPa 0,0 l/m 1,8 km/h (1 Bft) SO 139 0 min 93 W/m 1,5 C 1,9 C 4,8 km/h (1 Bft)
21.01.2018 11:30 1,8 C 97 % 1012,4 hPa 0,0 l/m 2,3 km/h (1 Bft) SO 139 0 min 97 W/m 1,4 C 1,8 C 4,8 km/h (1 Bft)
21.01.2018 11:33 1,9 C 97 % 1012,4 hPa 0,0 l/m 1,4 km/h (1 Bft) SO 139 0 min 90 W/m 1,5 C 1,9 C 3,2 km/h (1 Bft)
21.01.2018 11:36 1,9 C 97 % 1012,4 hPa 0,0 l/m 2,6 km/h (1 Bft) SO 139 0 min 72 W/m 1,5 C 1,9 C 6,4 km/h (2 Bft)
21.01.2018 11:39 1,9 C 97 % 1012,5 hPa 0,0 l/m 3,7 km/h (1 Bft) SO 145 0 min 84 W/m 1,5 C 1,9 C 6,4 km/h (2 Bft)
21.01.2018 11:42 1,9 C 97 % 1012,6 hPa 0,0 l/m 2,9 km/h (1 Bft) SO 145 0 min 69 W/m 1,5 C 1,9 C 4,8 km/h (1 Bft)
21.01.2018 11:45 1,9 C 97 % 1012,6 hPa 0,0 l/m 3,5 km/h (1 Bft) S-SO 148 0 min 62 W/m 1,5 C 1,9 C 6,4 km/h (2 Bft)
21.01.2018 11:48 1,9 C 97 % 1012,6 hPa 0,0 l/m 3,0 km/h (1 Bft) S 184 0 min 62 W/m 1,5 C 1,9 C 8,0 km/h (2 Bft)
21.01.2018 11:51 1,9 C 97 % 1012,7 hPa 0,0 l/m 4,2 km/h (1 Bft) S-SW 194 0 min 76 W/m 1,5 C 1,9 C 6,4 km/h (2 Bft)
21.01.2018 11:54 1,8 C 97 % 1012,7 hPa 0,0 l/m 4,7 km/h (1 Bft) S 178 0 min 104 W/m 1,4 C 1,8 C 8,0 km/h (2 Bft)
21.01.2018 11:57 1,9 C 97 % 1012,6 hPa 0,0 l/m 3,7 km/h (1 Bft) S 177 0 min 130 W/m 1,5 C 1,9 C 4,8 km/h (1 Bft)
21.01.2018 12:00 2,0 C 97 % 1012,7 hPa 0,0 l/m 3,1 km/h (1 Bft) S 177 0 min 118 W/m 1,6 C 2,0 C 4,8 km/h (1 Bft)
21.01.2018 12:03 2,1 C 97 % 1012,7 hPa 0,0 l/m 4,1 km/h (1 Bft) S 176 0 min 114 W/m 1,7 C 2,1 C 6,4 km/h (2 Bft)
21.01.2018 12:06 2,1 C 97 % 1012,7 hPa 0,0 l/m 5,3 km/h (1 Bft) S 176 0 min 102 W/m 1,7 C 2,1 C 8,0 km/h (2 Bft)
21.01.2018 12:09 2,1 C 97 % 1012,7 hPa 0,0 l/m 6,0 km/h (2 Bft) S-SO 166 0 min 121 W/m 1,7 C 2,1 C 9,7 km/h (2 Bft)
21.01.2018 12:12 2,1 C 97 % 1012,7 hPa 0,0 l/m 5,5 km/h (2 Bft) S-SO 166 0 min 125 W/m 1,7 C 2,1 C 8,0 km/h (2 Bft)
21.01.2018 12:15 2,1 C 97 % 1012,8 hPa 0,0 l/m 3,4 km/h (1 Bft) S 172 0 min 109 W/m 1,7 C 2,1 C 6,4 km/h (2 Bft)
21.01.2018 12:18 2,1 C 97 % 1012,8 hPa 0,0 l/m 3,9 km/h (1 Bft) S-SW 207 0 min 84 W/m 1,7 C 2,1 C 9,7 km/h (2 Bft)
21.01.2018 12:21 2,1 C 97 % 1012,8 hPa 0,0 l/m 4,7 km/h (1 Bft) S-SO 167 0 min 74 W/m 1,7 C 2,1 C 9,7 km/h (2 Bft)
21.01.2018 12:24 2,0 C 97 % 1012,8 hPa 0,0 l/m 4,3 km/h (1 Bft) S-SO 165 0 min 79 W/m 1,6 C 2,0 C 9,7 km/h (2 Bft)
21.01.2018 12:27 2,0 C 97 % 1012,9 hPa 0,0 l/m 4,0 km/h (1 Bft) S-SO 165 0 min 54 W/m 1,6 C 2,0 C 8,0 km/h (2 Bft)
21.01.2018 12:30 2,0 C 97 % 1012,8 hPa 0,0 l/m 4,4 km/h (1 Bft) S-SO 165 0 min 56 W/m 1,6 C 2,0 C 8,0 km/h (2 Bft)
21.01.2018 12:33 2,0 C 97 % 1012,9 hPa 0,0 l/m 5,5 km/h (2 Bft) SW 230 0 min 60 W/m 1,6 C 2,0 C 9,7 km/h (2 Bft)
21.01.2018 12:36 1,9 C 97 % 1012,9 hPa 0,0 l/m 2,5 km/h (1 Bft) SW 230 0 min 60 W/m 1,5 C 1,9 C 4,8 km/h (1 Bft)
21.01.2018 12:39 1,9 C 97 % 1012,9 hPa 0,0 l/m 3,6 km/h (1 Bft) S-SO 152 0 min 65 W/m 1,5 C 1,9 C 9,7 km/h (2 Bft)
21.01.2018 12:42 2,0 C 97 % 1012,9 hPa 0,0 l/m 4,6 km/h (1 Bft) S-SO 163 0 min 72 W/m 1,6 C 2,0 C 9,7 km/h (2 Bft)
21.01.2018 12:45 2,1 C 97 % 1012,9 hPa 0,0 l/m 2,4 km/h (1 Bft) S-SO 163 0 min 76 W/m 1,7 C 2,1 C 6,4 km/h (2 Bft)
21.01.2018 12:48 2,1 C 97 % 1012,8 hPa 0,0 l/m 5,8 km/h (2 Bft) S 169 0 min 76 W/m 1,7 C 2,1 C 11,3 km/h (2 Bft)
21.01.2018 12:51 2,0 C 97 % 1012,9 hPa 0,0 l/m 2,6 km/h (1 Bft) S 169 0 min 74 W/m 1,6 C 2,0 C 6,4 km/h (2 Bft)
21.01.2018 12:54 2,0 C 97 % 1012,9 hPa 0,0 l/m 3,6 km/h (1 Bft) S 169 0 min 83 W/m 1,6 C 2,0 C 6,4 km/h (2 Bft)
21.01.2018 12:57 2,1 C 97 % 1012,9 hPa 0,0 l/m 3,6 km/h (1 Bft) S 169 0 min 76 W/m 1,7 C 2,1 C 8,0 km/h (2 Bft)
21.01.2018 13:00 2,1 C 97 % 1012,9 hPa 0,0 l/m 5,7 km/h (2 Bft) SW 223 0 min 97 W/m 1,7 C 2,1 C 9,7 km/h (2 Bft)
21.01.2018 13:03 2,0 C 97 % 1012,9 hPa 0,0 l/m 5,4 km/h (2 Bft) SW 221 0 min 76 W/m 1,6 C 2,0 C 9,7 km/h (2 Bft)
21.01.2018 13:06 1,9 C 97 % 1012,9 hPa 0,0 l/m 6,5 km/h (2 Bft) S-SW 210 0 min 84 W/m 1,5 C 1,8 C 11,3 km/h (2 Bft)
21.01.2018 13:09 1,8 C 97 % 1012,9 hPa 0,0 l/m 5,4 km/h (2 Bft) S 180 0 min 77 W/m 1,4 C 1,8 C 11,3 km/h (2 Bft)
21.01.2018 13:12 1,8 C 97 % 1012,9 hPa 0,0 l/m 3,5 km/h (1 Bft) S 178 0 min 70 W/m 1,4 C 1,8 C 8,0 km/h (2 Bft)
21.01.2018 13:15 1,9 C 97 % 1012,9 hPa 0,0 l/m 4,8 km/h (1 Bft) SO 142 0 min 69 W/m 1,5 C 1,9 C 9,7 km/h (2 Bft)
21.01.2018 13:18 1,9 C 97 % 1013,0 hPa 0,0 l/m 3,2 km/h (1 Bft) SO 142 0 min 60 W/m 1,5 C 1,9 C 6,4 km/h (2 Bft)
21.01.2018 13:21 2,0 C 97 % 1013,0 hPa 0,0 l/m 2,2 km/h (1 Bft) SO 142 0 min 58 W/m 1,6 C 2,0 C 4,8 km/h (1 Bft)
21.01.2018 13:24 2,0 C 97 % 1013,1 hPa 0,0 l/m 3,7 km/h (1 Bft) S 170 0 min 58 W/m 1,6 C 2,0 C 8,0 km/h (2 Bft)
21.01.2018 13:27 2,0 C 97 % 1013,1 hPa 0,0 l/m 5,4 km/h (2 Bft) S 171 0 min 58 W/m 1,6 C 2,0 C 11,3 km/h (2 Bft)
21.01.2018 13:30 1,9 C 97 % 1013,1 hPa 0,0 l/m 4,7 km/h (1 Bft) S-SO 166 0 min 53 W/m 1,5 C 1,9 C 8,0 km/h (2 Bft)
21.01.2018 13:33 1,9 C 97 % 1013,1 hPa 0,0 l/m 5,1 km/h (1 Bft) S 169 0 min 51 W/m 1,5 C 1,9 C 9,7 km/h (2 Bft)
21.01.2018 13:36 1,8 C 97 % 1013,2 hPa 0,0 l/m 2,5 km/h (1 Bft) S 169 0 min 54 W/m 1,4 C 1,8 C 8,0 km/h (2 Bft)
21.01.2018 13:39 1,9 C 97 % 1013,2 hPa 0,0 l/m 3,8 km/h (1 Bft) S-SW 198 0 min 51 W/m 1,5 C 1,9 C 8,0 km/h (2 Bft)
21.01.2018 13:42 1,8 C 97 % 1013,3 hPa 0,0 l/m 4,1 km/h (1 Bft) S 184 0 min 46 W/m 1,4 C 1,8 C 9,7 km/h (2 Bft)
21.01.2018 13:45 1,8 C 97 % 1013,3 hPa 0,0 l/m 3,4 km/h (1 Bft) S 190 0 min 53 W/m 1,4 C 1,8 C 6,4 km/h (2 Bft)
21.01.2018 13:48 1,8 C 97 % 1013,3 hPa 0,0 l/m 4,9 km/h (1 Bft) O-SO 121 0 min 53 W/m 1,4 C 1,8 C 16,1 km/h (3 Bft)
21.01.2018 13:51 1,7 C 97 % 1013,4 hPa 0,0 l/m 3,8 km/h (1 Bft) S-SO 155 0 min 47 W/m 1,3 C 1,7 C 9,7 km/h (2 Bft)
21.01.2018 13:54 1,7 C 97 % 1013,4 hPa 0,0 l/m 3,6 km/h (1 Bft) S-SO 151 0 min 47 W/m 1,3 C 1,7 C 6,4 km/h (2 Bft)
21.01.2018 13:57 1,7 C 97 % 1013,4 hPa 0,0 l/m 4,5 km/h (1 Bft) SO 144 0 min 49 W/m 1,3 C 1,7 C 8,0 km/h (2 Bft)
21.01.2018 14:00 1,7 C 97 % 1013,5 hPa 0,0 l/m 5,3 km/h (1 Bft) S 172 0 min 47 W/m 1,3 C 1,7 C 11,3 km/h (2 Bft)
21.01.2018 14:03 1,7 C 97 % 1013,5 hPa 0,0 l/m 3,0 km/h (1 Bft) S 172 0 min 49 W/m 1,3 C 1,7 C 8,0 km/h (2 Bft)
21.01.2018 14:06 1,7 C 97 % 1013,5 hPa 0,0 l/m 3,1 km/h (1 Bft) S 172 0 min 40 W/m 1,3 C 1,7 C 4,8 km/h (1 Bft)
21.01.2018 14:09 1,7 C 97 % 1013,6 hPa 0,0 l/m 3,0 km/h (1 Bft) S 172 0 min 35 W/m 1,3 C 1,7 C 4,8 km/h (1 Bft)
21.01.2018 14:12 1,8 C 97 % 1013,6 hPa 0,0 l/m 2,2 km/h (1 Bft) S 172 0 min 32 W/m 1,4 C 1,8 C 4,8 km/h (1 Bft)
21.01.2018 14:15 1,8 C 97 % 1013,6 hPa 0,0 l/m 2,6 km/h (1 Bft) S 173 0 min 33 W/m 1,4 C 1,8 C 8,0 km/h (2 Bft)
21.01.2018 14:18 1,8 C 97 % 1013,6 hPa 0,0 l/m 3,6 km/h (1 Bft) S-SO 167 0 min 33 W/m 1,4 C 1,8 C 8,0 km/h (2 Bft)
21.01.2018 14:21 1,8 C 97 % 1013,6 hPa 0,0 l/m 4,8 km/h (1 Bft) S-SO 168 0 min 35 W/m 1,4 C 1,8 C 8,0 km/h (2 Bft)
21.01.2018 14:24 1,8 C 97 % 1013,6 hPa 0,0 l/m 6,1 km/h (2 Bft) S-SO 157 0 min 37 W/m 1,4 C 1,8 C 12,9 km/h (3 Bft)
21.01.2018 14:27 1,7 C 97 % 1013,7 hPa 0,0 l/m 6,4 km/h (2 Bft) SW 216 0 min 33 W/m 1,3 C 1,7 C 11,3 km/h (2 Bft)
21.01.2018 14:30 1,6 C 97 % 1013,7 hPa 0,0 l/m 5,7 km/h (2 Bft) S 185 0 min 33 W/m 1,2 C 1,6 C 8,0 km/h (2 Bft)
21.01.2018 14:33 1,6 C 97 % 1013,7 hPa 0,0 l/m 6,2 km/h (2 Bft) S 174 0 min 30 W/m 1,2 C 1,6 C 11,3 km/h (2 Bft)
21.01.2018 14:36 1,6 C 97 % 1013,7 hPa 0,0 l/m 3,2 km/h (1 Bft) S 174 0 min 32 W/m 1,2 C 1,6 C 8,0 km/h (2 Bft)
21.01.2018 14:39 1,7 C 97 % 1013,7 hPa 0,0 l/m 5,4 km/h (2 Bft) SO 133 0 min 32 W/m 1,3 C 1,7 C 9,7 km/h (2 Bft)
21.01.2018 14:42 1,7 C 97 % 1013,7 hPa 0,0 l/m 3,9 km/h (1 Bft) S-SO 166 0 min 28 W/m 1,3 C 1,7 C 8,0 km/h (2 Bft)
21.01.2018 14:45 1,7 C 97 % 1013,7 hPa 0,0 l/m 3,8 km/h (1 Bft) O-SO 121 0 min 26 W/m 1,3 C 1,7 C 8,0 km/h (2 Bft)
21.01.2018 14:48 1,6 C 97 % 1013,7 hPa 0,0 l/m 7,9 km/h (2 Bft) O-SO 117 0 min 23 W/m 1,2 C 0,1 C 12,9 km/h (3 Bft)
21.01.2018 14:51 1,6 C 97 % 1013,7 hPa 0,0 l/m 4,4 km/h (1 Bft) S 174 0 min 21 W/m 1,2 C 1,6 C 8,0 km/h (2 Bft)
21.01.2018 14:54 1,6 C 97 % 1013,7 hPa 0,0 l/m 8,0 km/h (2 Bft) S-SO 167 0 min 18 W/m 1,2 C 0,0 C 12,9 km/h (3 Bft)
21.01.2018 14:57 1,6 C 97 % 1013,8 hPa 0,0 l/m 4,2 km/h (1 Bft) S 170 0 min 19 W/m 1,2 C 1,6 C 11,3 km/h (2 Bft)
21.01.2018 15:00 1,6 C 97 % 1013,8 hPa 0,0 l/m 5,9 km/h (2 Bft) SO 130 0 min 19 W/m 1,2 C 1,6 C 14,5 km/h (3 Bft)
21.01.2018 15:03 1,6 C 97 % 1013,9 hPa 0,0 l/m 5,1 km/h (1 Bft) S 184 0 min 23 W/m 1,2 C 1,6 C 14,5 km/h (3 Bft)
21.01.2018 15:06 1,5 C 97 % 1013,9 hPa 0,0 l/m 5,9 km/h (2 Bft) S-SO 150 0 min 23 W/m 1,1 C 1,5 C 12,9 km/h (3 Bft)
21.01.2018 15:09 1,4 C 97 % 1013,9 hPa 0,0 l/m 5,7 km/h (2 Bft) S-SO 159 0 min 23 W/m 1,0 C 1,4 C 11,3 km/h (2 Bft)
21.01.2018 15:12 1,4 C 97 % 1013,9 hPa 0,0 l/m 6,1 km/h (2 Bft) S-SO 157 0 min 19 W/m 1,0 C 1,4 C 11,3 km/h (2 Bft)
21.01.2018 15:15 1,4 C 97 % 1013,9 hPa 0,0 l/m 5,7 km/h (2 Bft) S-SO 155 0 min 18 W/m 1,0 C 1,4 C 14,5 km/h (3 Bft)
21.01.2018 15:18 1,4 C 97 % 1014,0 hPa 0,0 l/m 4,4 km/h (1 Bft) S-SO 161 0 min 16 W/m 1,0 C 1,4 C 8,0 km/h (2 Bft)
21.01.2018 15:21 1,4 C 97 % 1014,0 hPa 0,0 l/m 6,0 km/h (2 Bft) SO 129 0 min 14 W/m 1,0 C 1,4 C 11,3 km/h (2 Bft)
21.01.2018 15:24 1,4 C 97 % 1014,0 hPa 0,0 l/m 4,6 km/h (1 Bft) S-SO 150 0 min 18 W/m 1,0 C 1,4 C 8,0 km/h (2 Bft)
21.01.2018 15:27 1,4 C 97 % 1014,1 hPa 0,0 l/m 5,7 km/h (2 Bft) S 173 0 min 16 W/m 1,0 C 1,4 C 9,7 km/h (2 Bft)
21.01.2018 15:30 1,4 C 97 % 1014,1 hPa 0,0 l/m 5,1 km/h (1 Bft) S 169 0 min 16 W/m 1,0 C 1,4 C 9,7 km/h (2 Bft)
21.01.2018 15:33 1,4 C 97 % 1014,0 hPa 0,0 l/m 3,3 km/h (1 Bft) SO 134 0 min 16 W/m 1,0 C 1,4 C 6,4 km/h (2 Bft)
21.01.2018 15:36 1,4 C 97 % 1014,0 hPa 0,0 l/m 3,7 km/h (1 Bft) SO 136 0 min 16 W/m 1,0 C 1,4 C 6,4 km/h (2 Bft)
21.01.2018 15:39 1,4 C 97 % 1013,9 hPa 0,0 l/m 4,9 km/h (1 Bft) SO 138 0 min 14 W/m 1,0 C 1,4 C 8,0 km/h (2 Bft)
21.01.2018 15:42 1,3 C 97 % 1014,0 hPa 0,0 l/m 6,5 km/h (2 Bft) S-SO 149 0 min 14 W/m 0,9 C 1,2 C 12,9 km/h (3 Bft)
21.01.2018 15:45 1,4 C 97 % 1013,9 hPa 0,0 l/m 6,6 km/h (2 Bft) SO 128 0 min 12 W/m 1,0 C 1,2 C 12,9 km/h (3 Bft)
21.01.2018 15:48 1,3 C 97 % 1014,1 hPa 0,0 l/m 5,8 km/h (2 Bft) SO 128 0 min 12 W/m 0,9 C 1,3 C 11,3 km/h (2 Bft)
21.01.2018 15:51 1,3 C 97 % 1014,1 hPa 0,0 l/m 5,6 km/h (2 Bft) SO 128 0 min 11 W/m 0,9 C 1,3 C 12,9 km/h (3 Bft)
21.01.2018 15:54 1,3 C 97 % 1014,2 hPa 0,0 l/m 3,6 km/h (1 Bft) SO 128 0 min 9 W/m 0,9 C 1,3 C 6,4 km/h (2 Bft)
21.01.2018 15:57 1,3 C 97 % 1014,2 hPa 0,0 l/m 5,5 km/h (2 Bft) S-SO 148 0 min 9 W/m 0,9 C 1,3 C 11,3 km/h (2 Bft)
21.01.2018 16:00 1,3 C 97 % 1014,3 hPa 0,0 l/m 3,0 km/h (1 Bft) S-SO 148 0 min 9 W/m 0,9 C 1,3 C 4,8 km/h (1 Bft)
21.01.2018 16:03 1,3 C 97 % 1014,3 hPa 0,0 l/m 5,6 km/h (2 Bft) S-SO 163 0 min 9 W/m 0,9 C 1,3 C 9,7 km/h (2 Bft)
21.01.2018 16:06 1,3 C 97 % 1014,4 hPa 0,0 l/m 5,8 km/h (2 Bft) SO 135 0 min 7 W/m 0,9 C 1,3 C 11,3 km/h (2 Bft)
21.01.2018 16:09 1,3 C 97 % 1014,4 hPa 0,0 l/m 5,3 km/h (1 Bft) S-SO 148 0 min 7 W/m 0,9 C 1,3 C 12,9 km/h (3 Bft)
21.01.2018 16:12 1,3 C 97 % 1014,4 hPa 0,0 l/m 4,2 km/h (1 Bft) S-SO 167 0 min 5 W/m 0,9 C 1,3 C 9,7 km/h (2 Bft)
21.01.2018 16:15 1,3 C 97 % 1014,4 hPa 0,0 l/m 4,8 km/h (1 Bft) S-SO 167 0 min 5 W/m 0,9 C 1,3 C 9,7 km/h (2 Bft)
21.01.2018 16:18 1,3 C 97 % 1014,4 hPa 0,0 l/m 5,2 km/h (1 Bft) S-SO 167 0 min 5 W/m 0,9 C 1,3 C 8,0 km/h (2 Bft)
21.01.2018 16:21 1,3 C 97 % 1014,4 hPa 0,0 l/m 4,4 km/h (1 Bft) S-SO 167 0 min 5 W/m 0,9 C 1,3 C 6,4 km/h (2 Bft)
21.01.2018 16:24 1,3 C 97 % 1014,5 hPa 0,0 l/m 3,1 km/h (1 Bft) S-SO 167 0 min 0 W/m 0,9 C 1,3 C 6,4 km/h (2 Bft)
21.01.2018 16:27 1,3 C 97 % 1014,4 hPa 0,0 l/m 2,9 km/h (1 Bft) S-SO 167 0 min 0 W/m 0,9 C 1,3 C 6,4 km/h (2 Bft)
21.01.2018 16:30 1,3 C 97 % 1014,4 hPa 0,0 l/m 2,9 km/h (1 Bft) S-SO 167 0 min 0 W/m 0,9 C 1,3 C 4,8 km/h (1 Bft)
21.01.2018 16:33 1,3 C 97 % 1014,3 hPa 0,0 l/m 3,1 km/h (1 Bft) S-SO 167 0 min 0 W/m 0,9 C 1,3 C 6,4 km/h (2 Bft)
21.01.2018 16:36 1,3 C 97 % 1014,4 hPa 0,0 l/m 3,3 km/h (1 Bft) S-SO 167 0 min 0 W/m 0,9 C 1,3 C 6,4 km/h (2 Bft)
21.01.2018 16:39 1,3 C 97 % 1014,4 hPa 0,0 l/m 1,8 km/h (1 Bft) S-SO 167 0 min 0 W/m 0,9 C 1,3 C 6,4 km/h (2 Bft)
21.01.2018 16:42 1,3 C 97 % 1014,4 hPa 0,0 l/m 4,1 km/h (1 Bft) S-SO 167 0 min 0 W/m 0,9 C 1,3 C 6,4 km/h (2 Bft)
21.01.2018 16:45 1,3 C 97 % 1014,5 hPa 0,0 l/m 4,9 km/h (1 Bft) S-SO 167 0 min 0 W/m 0,9 C 1,3 C 6,4 km/h (2 Bft)
21.01.2018 16:48 1,3 C 97 % 1014,5 hPa 0,0 l/m 4,4 km/h (1 Bft) S-SO 167 0 min 0 W/m 0,9 C 1,3 C 8,0 km/h (2 Bft)
21.01.2018 16:51 1,3 C 97 % 1014,5 hPa 0,0 l/m 3,2 km/h (1 Bft) S-SO 167 0 min 0 W/m 0,9 C 1,3 C 6,4 km/h (2 Bft)
21.01.2018 16:54 1,3 C 97 % 1014,5 hPa 0,0 l/m 3,0 km/h (1 Bft) S-SO 167 0 min 0 W/m 0,9 C 1,3 C 6,4 km/h (2 Bft)
21.01.2018 16:57 1,3 C 97 % 1014,5 hPa 0,0 l/m 3,7 km/h (1 Bft) S-SO 167 0 min 0 W/m 0,9 C 1,3 C 6,4 km/h (2 Bft)
21.01.2018 17:00 1,3 C 97 % 1014,5 hPa 0,0 l/m 4,6 km/h (1 Bft) S-SO 156 0 min 0 W/m 0,9 C 1,3 C 8,0 km/h (2 Bft)
21.01.2018 17:03 1,3 C 97 % 1014,4 hPa 0,0 l/m 3,7 km/h (1 Bft) SO 127 0 min 0 W/m 0,9 C 1,3 C 6,4 km/h (2 Bft)
21.01.2018 17:06 1,3 C 97 % 1014,4 hPa 0,0 l/m 4,2 km/h (1 Bft) SO 127 0 min 0 W/m 0,9 C 1,3 C 6,4 km/h (2 Bft)
21.01.2018 17:09 1,3 C 97 % 1014,4 hPa 0,0 l/m 4,1 km/h (1 Bft) S-SW 202 0 min 0 W/m 0,9 C 1,3 C 8,0 km/h (2 Bft)
21.01.2018 17:12 1,3 C 97 % 1014,3 hPa 0,0 l/m 4,3 km/h (1 Bft) SO 129 0 min 0 W/m 0,9 C 1,3 C 8,0 km/h (2 Bft)
21.01.2018 17:15 1,3 C 97 % 1014,3 hPa 0,0 l/m 4,1 km/h (1 Bft) SO 129 0 min 0 W/m 0,9 C 1,3 C 6,4 km/h (2 Bft)
21.01.2018 17:18 1,3 C 97 % 1014,3 hPa 0,0 l/m 3,6 km/h (1 Bft) SO 130 0 min 0 W/m 0,9 C 1,3 C 6,4 km/h (2 Bft)
21.01.2018 17:21 1,3 C 97 % 1014,2 hPa 0,0 l/m 3,9 km/h (1 Bft) SO 130 0 min 0 W/m 0,9 C 1,3 C 6,4 km/h (2 Bft)
21.01.2018 17:24 1,3 C 97 % 1014,1 hPa 0,0 l/m 4,1 km/h (1 Bft) SO 146 0 min 0 W/m 0,9 C 1,3 C 8,0 km/h (2 Bft)
21.01.2018 17:27 1,3 C 97 % 1014,0 hPa 0,0 l/m 3,3 km/h (1 Bft) O-SO 107 0 min 0 W/m 0,9 C 1,3 C 9,7 km/h (2 Bft)
21.01.2018 17:30 1,4 C 97 % 1014,0 hPa 0,0 l/m 4,4 km/h (1 Bft) SO 138 0 min 0 W/m 1,0 C 1,4 C 11,3 km/h (2 Bft)
21.01.2018 17:33 1,4 C 97 % 1013,9 hPa 0,0 l/m 5,5 km/h (2 Bft) S-SO 147 0 min 0 W/m 1,0 C 1,4 C 11,3 km/h (2 Bft)
21.01.2018 17:36 1,4 C 97 % 1013,9 hPa 0,0 l/m 3,5 km/h (1 Bft) SO 145 0 min 0 W/m 1,0 C 1,4 C 8,0 km/h (2 Bft)
21.01.2018 17:39 1,4 C 97 % 1013,9 hPa 0,0 l/m 4,4 km/h (1 Bft) SO 138 0 min 0 W/m 1,0 C 1,4 C 8,0 km/h (2 Bft)
21.01.2018 17:42 1,4 C 97 % 1013,9 hPa 0,0 l/m 5,2 km/h (1 Bft) S-SO 158 0 min 0 W/m 1,0 C 1,4 C 9,7 km/h (2 Bft)
21.01.2018 17:45 1,4 C 97 % 1014,0 hPa 0,0 l/m 3,8 km/h (1 Bft) SO 140 0 min 0 W/m 1,0 C 1,4 C 9,7 km/h (2 Bft)
21.01.2018 17:48 1,4 C 97 % 1014,0 hPa 0,0 l/m 4,0 km/h (1 Bft) SO 141 0 min 0 W/m 1,0 C 1,4 C 6,4 km/h (2 Bft)
21.01.2018 17:51 1,4 C 97 % 1013,9 hPa 0,0 l/m 3,8 km/h (1 Bft) SO 129 0 min 0 W/m 1,0 C 1,4 C 8,0 km/h (2 Bft)
21.01.2018 17:54 1,4 C 97 % 1013,9 hPa 0,0 l/m 5,0 km/h (1 Bft) SO 140 0 min 0 W/m 1,0 C 1,4 C 11,3 km/h (2 Bft)
21.01.2018 17:57 1,4 C 97 % 1014,0 hPa 0,0 l/m 4,3 km/h (1 Bft) SO 146 0 min 0 W/m 1,0 C 1,4 C 8,0 km/h (2 Bft)
21.01.2018 18:00 1,4 C 97 % 1013,9 hPa 0,0 l/m 6,2 km/h (2 Bft) SO 130 0 min 0 W/m 1,0 C 1,4 C 11,3 km/h (2 Bft)
21.01.2018 18:03 1,4 C 97 % 1013,9 hPa 0,0 l/m 5,4 km/h (2 Bft) SO 138 0 min 0 W/m 1,0 C 1,4 C 11,3 km/h (2 Bft)
21.01.2018 18:06 1,4 C 97 % 1013,8 hPa 0,0 l/m 5,7 km/h (2 Bft) SO 141 0 min 0 W/m 1,0 C 1,4 C 12,9 km/h (3 Bft)
21.01.2018 18:09 1,4 C 97 % 1013,8 hPa 0,0 l/m 5,4 km/h (2 Bft) S-SO 150 0 min 0 W/m 1,0 C 1,4 C 8,0 km/h (2 Bft)
21.01.2018 18:12 1,4 C 97 % 1013,9 hPa 0,0 l/m 5,7 km/h (2 Bft) S-SO 165 0 min 0 W/m 1,0 C 1,4 C 11,3 km/h (2 Bft)
21.01.2018 18:15 1,5 C 97 % 1013,9 hPa 0,0 l/m 7,1 km/h (2 Bft) S-SO 153 0 min 0 W/m 1,1 C 0,8 C 14,5 km/h (3 Bft)
21.01.2018 18:18 1,4 C 97 % 1013,9 hPa 0,0 l/m 5,0 km/h (1 Bft) S-SO 160 0 min 0 W/m 1,0 C 1,4 C 11,3 km/h (2 Bft)
21.01.2018 18:21 1,5 C 97 % 1014,0 hPa 0,0 l/m 4,9 km/h (1 Bft) SO 127 0 min 0 W/m 1,1 C 1,5 C 12,9 km/h (3 Bft)
21.01.2018 18:24 1,5 C 97 % 1014,0 hPa 0,0 l/m 4,0 km/h (1 Bft) S-SO 154 0 min 0 W/m 1,1 C 1,5 C 11,3 km/h (2 Bft)
21.01.2018 18:27 1,5 C 97 % 1014,0 hPa 0,0 l/m 6,0 km/h (2 Bft) SO 144 0 min 0 W/m 1,1 C 1,5 C 12,9 km/h (3 Bft)
21.01.2018 18:30 1,4 C 97 % 1014,0 hPa 0,0 l/m 5,9 km/h (2 Bft) S-SO 163 0 min 0 W/m 1,0 C 1,4 C 14,5 km/h (3 Bft)
21.01.2018 18:33 1,5 C 97 % 1014,0 hPa 0,0 l/m 6,1 km/h (2 Bft) O-SO 122 0 min 0 W/m 1,1 C 1,5 C 12,9 km/h (3 Bft)
21.01.2018 18:36 1,4 C 97 % 1014,1 hPa 0,0 l/m 6,0 km/h (2 Bft) S-SO 161 0 min 0 W/m 1,0 C 1,4 C 12,9 km/h (3 Bft)
21.01.2018 18:39 1,4 C 97 % 1014,1 hPa 0,0 l/m 5,6 km/h (2 Bft) S-SO 161 0 min 0 W/m 1,0 C 1,4 C 12,9 km/h (3 Bft)
21.01.2018 18:42 1,4 C 97 % 1014,1 hPa 0,0 l/m 4,2 km/h (1 Bft) S-SO 151 0 min 0 W/m 1,0 C 1,4 C 9,7 km/h (2 Bft)
21.01.2018 18:45 1,4 C 97 % 1014,1 hPa 0,0 l/m 6,0 km/h (2 Bft) SO 137 0 min 0 W/m 1,0 C 1,4 C 11,3 km/h (2 Bft)
21.01.2018 18:48 1,4 C 97 % 1014,0 hPa 0,0 l/m 5,9 km/h (2 Bft) S-SO 166 0 min 0 W/m 1,0 C 1,4 C 11,3 km/h (2 Bft)
21.01.2018 18:51 1,4 C 97 % 1013,9 hPa 0,0 l/m 6,5 km/h (2 Bft) S-SO 164 0 min 0 W/m 1,0 C 1,3 C 14,5 km/h (3 Bft)
21.01.2018 18:54 1,4 C 97 % 1013,9 hPa 0,0 l/m 5,6 km/h (2 Bft) O-SO 111 0 min 0 W/m 1,0 C 1,4 C 11,3 km/h (2 Bft)
21.01.2018 18:57 1,4 C 97 % 1013,9 hPa 0,0 l/m 4,9 km/h (1 Bft) S-SO 156 0 min 0 W/m 1,0 C 1,4 C 11,3 km/h (2 Bft)
21.01.2018 19:00 1,4 C 97 % 1014,0 hPa 0,0 l/m 5,0 km/h (1 Bft) S-SO 159 0 min 0 W/m 1,0 C 1,4 C 9,7 km/h (2 Bft)
21.01.2018 19:03 1,4 C 97 % 1014,0 hPa 0,0 l/m 6,1 km/h (2 Bft) S-SO 159 0 min 0 W/m 1,0 C 1,4 C 11,3 km/h (2 Bft)
21.01.2018 19:06 1,4 C 97 % 1014,0 hPa 0,0 l/m 4,2 km/h (1 Bft) SO 135 0 min 0 W/m 1,0 C 1,4 C 8,0 km/h (2 Bft)
21.01.2018 19:09 1,4 C 97 % 1013,9 hPa 0,0 l/m 5,5 km/h (2 Bft) S-SO 150 0 min 0 W/m 1,0 C 1,4 C 12,9 km/h (3 Bft)
21.01.2018 19:12 1,4 C 97 % 1014,0 hPa 0,0 l/m 5,1 km/h (1 Bft) S-SO 152 0 min 0 W/m 1,0 C 1,4 C 11,3 km/h (2 Bft)
21.01.2018 19:15 1,3 C 97 % 1014,1 hPa 0,0 l/m 6,4 km/h (2 Bft) S-SO 165 0 min 0 W/m 0,9 C 1,3 C 11,3 km/h (2 Bft)
21.01.2018 19:18 1,3 C 97 % 1014,1 hPa 0,0 l/m 5,6 km/h (2 Bft) S 170 0 min 0 W/m 0,9 C 1,3 C 14,5 km/h (3 Bft)
21.01.2018 19:21 1,4 C 97 % 1014,1 hPa 0,0 l/m 5,6 km/h (2 Bft) S 181 0 min 0 W/m 1,0 C 1,4 C 11,3 km/h (2 Bft)
21.01.2018 19:24 1,4 C 97 % 1014,1 hPa 0,0 l/m 7,3 km/h (2 Bft) S-SO 162 0 min 0 W/m 1,0 C 0,5 C 14,5 km/h (3 Bft)
21.01.2018 19:27 1,4 C 97 % 1014,0 hPa 0,0 l/m 5,9 km/h (2 Bft) S 169 0 min 0 W/m 1,0 C 1,4 C 11,3 km/h (2 Bft)
21.01.2018 19:30 1,4 C 97 % 1014,0 hPa 0,0 l/m 7,3 km/h (2 Bft) S-SO 167 0 min 0 W/m 1,0 C 0,5 C 16,1 km/h (3 Bft)
21.01.2018 19:33 1,4 C 97 % 1013,9 hPa 0,0 l/m 6,5 km/h (2 Bft) S-SO 153 0 min 0 W/m 1,0 C 1,3 C 11,3 km/h (2 Bft)
21.01.2018 19:36 1,4 C 97 % 1013,9 hPa 0,0 l/m 7,6 km/h (2 Bft) S-SO 148 0 min 0 W/m 1,0 C 0,2 C 14,5 km/h (3 Bft)
21.01.2018 19:39 1,3 C 97 % 1013,9 hPa 0,0 l/m 4,9 km/h (1 Bft) SO 130 0 min 0 W/m 0,9 C 1,3 C 11,3 km/h (2 Bft)
21.01.2018 19:42 1,3 C 97 % 1013,9 hPa 0,0 l/m 6,2 km/h (2 Bft) S-SO 161 0 min 0 W/m 0,9 C 1,3 C 9,7 km/h (2 Bft)
21.01.2018 19:45 1,3 C 97 % 1013,9 hPa 0,0 l/m 5,8 km/h (2 Bft) SO 131 0 min 0 W/m 0,9 C 1,3 C 12,9 km/h (3 Bft)
21.01.2018 19:48 1,3 C 97 % 1013,9 hPa 0,0 l/m 4,7 km/h (1 Bft) O-SO 119 0 min 0 W/m 0,9 C 1,3 C 9,7 km/h (2 Bft)
21.01.2018 19:51 1,3 C 97 % 1013,9 hPa 0,0 l/m 6,4 km/h (2 Bft) S 171 0 min 0 W/m 0,9 C 1,3 C 14,5 km/h (3 Bft)
21.01.2018 19:54 1,3 C 97 % 1013,9 hPa 0,0 l/m 6,1 km/h (2 Bft) S-SO 147 0 min 0 W/m 0,9 C 1,3 C 9,7 km/h (2 Bft)
21.01.2018 19:57 1,3 C 97 % 1013,9 hPa 0,0 l/m 4,7 km/h (1 Bft) S-SO 157 0 min 0 W/m 0,9 C 1,3 C 8,0 km/h (2 Bft)
21.01.2018 20:00 1,3 C 97 % 1013,9 hPa 0,0 l/m 6,2 km/h (2 Bft) SO 134 0 min 0 W/m 0,9 C 1,3 C 11,3 km/h (2 Bft)
21.01.2018 20:03 1,3 C 97 % 1013,9 hPa 0,0 l/m 7,7 km/h (2 Bft) SO 129 0 min 0 W/m 0,9 C 0,0 C 14,5 km/h (3 Bft)
21.01.2018 20:06 1,3 C 97 % 1013,8 hPa 0,0 l/m 6,7 km/h (2 Bft) SO 140 0 min 0 W/m 0,9 C 1,0 C 14,5 km/h (3 Bft)
21.01.2018 20:09 1,3 C 97 % 1013,7 hPa 0,0 l/m 5,9 km/h (2 Bft) SO 135 0 min 0 W/m 0,9 C 1,3 C 12,9 km/h (3 Bft)
21.01.2018 20:12 1,3 C 97 % 1013,7 hPa 0,0 l/m 7,4 km/h (2 Bft) SO 127 0 min 0 W/m 0,9 C 0,3 C 14,5 km/h (3 Bft)
21.01.2018 20:15 1,3 C 97 % 1013,6 hPa 0,0 l/m 5,9 km/h (2 Bft) S-SO 166 0 min 0 W/m 0,9 C 1,3 C 14,5 km/h (3 Bft)
21.01.2018 20:18 1,3 C 97 % 1013,6 hPa 0,0 l/m 6,9 km/h (2 Bft) SO 144 0 min 0 W/m 0,9 C 0,8 C 12,9 km/h (3 Bft)
21.01.2018 20:21 1,2 C 96 % 1013,5 hPa 0,0 l/m 6,6 km/h (2 Bft) O 98 0 min 0 W/m 0,6 C 1,0 C 11,3 km/h (2 Bft)
21.01.2018 20:24 1,2 C 96 % 1013,5 hPa 0,0 l/m 5,1 km/h (1 Bft) SO 137 0 min 0 W/m 0,6 C 1,2 C 9,7 km/h (2 Bft)
21.01.2018 20:27 1,2 C 96 % 1013,5 hPa 0,0 l/m 6,1 km/h (2 Bft) S-SO 148 0 min 0 W/m 0,6 C 1,2 C 11,3 km/h (2 Bft)
21.01.2018 20:30 1,2 C 96 % 1013,4 hPa 0,0 l/m 7,7 km/h (2 Bft) SO 131 0 min 0 W/m 0,6 C -0,1 C 12,9 km/h (3 Bft)
21.01.2018 20:33 1,1 C 96 % 1013,3 hPa 0,0 l/m 9,0 km/h (2 Bft) SO 127 0 min 0 W/m 0,5 C -1,4 C 14,5 km/h (3 Bft)
21.01.2018 20:36 1,1 C 96 % 1013,2 hPa 0,0 l/m 8,2 km/h (2 Bft) SO 144 0 min 0 W/m 0,5 C -0,7 C 17,7 km/h (3 Bft)
21.01.2018 20:39 1,1 C 96 % 1013,3 hPa 0,0 l/m 7,5 km/h (2 Bft) O-SO 111 0 min 0 W/m 0,5 C -0,0 C 16,1 km/h (3 Bft)
21.01.2018 20:42 1,1 C 96 % 1013,2 hPa 0,0 l/m 7,5 km/h (2 Bft) SO 130 0 min 0 W/m 0,5 C -0,0 C 14,5 km/h (3 Bft)
21.01.2018 20:45 1,1 C 96 % 1013,1 hPa 0,0 l/m 7,0 km/h (2 Bft) SO 140 0 min 0 W/m 0,5 C 0,5 C 12,9 km/h (3 Bft)
21.01.2018 20:48 1,0 C 96 % 1013,2 hPa 0,0 l/m 5,6 km/h (2 Bft) S-SO 148 0 min 0 W/m 0,4 C 1,0 C 14,5 km/h (3 Bft)
21.01.2018 20:51 1,0 C 96 % 1013,1 hPa 0,0 l/m 6,6 km/h (2 Bft) S-SO 164 0 min 0 W/m 0,4 C 0,8 C 14,5 km/h (3 Bft)
21.01.2018 20:54 1,0 C 96 % 1013,0 hPa 0,0 l/m 6,9 km/h (2 Bft) SO 138 0 min 0 W/m 0,4 C 0,5 C 14,5 km/h (3 Bft)
21.01.2018 20:57 1,0 C 96 % 1013,0 hPa 0,0 l/m 6,5 km/h (2 Bft) SO 137 0 min 0 W/m 0,4 C 0,9 C 12,9 km/h (3 Bft)
21.01.2018 21:00 0,9 C 96 % 1013,0 hPa 0,0 l/m 6,2 km/h (2 Bft) SO 136 0 min 0 W/m 0,3 C 0,9 C 9,7 km/h (2 Bft)
21.01.2018 21:03 0,9 C 96 % 1012,9 hPa 0,0 l/m 6,4 km/h (2 Bft) S-SO 154 0 min 0 W/m 0,3 C 0,9 C 12,9 km/h (3 Bft)
21.01.2018 21:06 0,9 C 96 % 1012,9 hPa 0,0 l/m 7,9 km/h (2 Bft) SO 140 0 min 0 W/m 0,3 C -0,6 C 16,1 km/h (3 Bft)
21.01.2018 21:09 1,0 C 96 % 1012,8 hPa 0,0 l/m 7,9 km/h (2 Bft) SO 137 0 min 0 W/m 0,4 C -0,5 C 16,1 km/h (3 Bft)
21.01.2018 21:12 1,0 C 96 % 1012,8 hPa 0,0 l/m 6,8 km/h (2 Bft) O-SO 123 0 min 0 W/m 0,4 C 0,6 C 12,9 km/h (3 Bft)
21.01.2018 21:15 1,0 C 96 % 1012,8 hPa 0,0 l/m 6,3 km/h (2 Bft) SO 130 0 min 0 W/m 0,4 C 1,0 C 12,9 km/h (3 Bft)
21.01.2018 21:18 1,0 C 96 % 1012,7 hPa 0,0 l/m 5,7 km/h (2 Bft) SO 124 0 min 0 W/m 0,4 C 1,0 C 11,3 km/h (2 Bft)
21.01.2018 21:21 1,0 C 96 % 1012,6 hPa 0,0 l/m 5,9 km/h (2 Bft) SO 126 0 min 0 W/m 0,4 C 1,0 C 12,9 km/h (3 Bft)
21.01.2018 21:24 1,0 C 96 % 1012,6 hPa 0,0 l/m 6,3 km/h (2 Bft) SO 135 0 min 0 W/m 0,4 C 1,0 C 12,9 km/h (3 Bft)
21.01.2018 21:27 1,1 C 96 % 1012,6 hPa 0,0 l/m 8,2 km/h (2 Bft) SO 128 0 min 0 W/m 0,5 C -0,7 C 16,1 km/h (3 Bft)
21.01.2018 21:30 1,1 C 96 % 1012,7 hPa 0,0 l/m 5,0 km/h (1 Bft) S-SO 157 0 min 0 W/m 0,5 C 1,1 C 9,7 km/h (2 Bft)
21.01.2018 21:33 1,1 C 96 % 1012,7 hPa 0,0 l/m 5,1 km/h (1 Bft) S-SO 160 0 min 0 W/m 0,5 C 1,1 C 8,0 km/h (2 Bft)
21.01.2018 21:36 1,1 C 96 % 1012,5 hPa 0,0 l/m 4,8 km/h (1 Bft) SO 140 0 min 0 W/m 0,5 C 1,1 C 12,9 km/h (3 Bft)
21.01.2018 21:39 1,1 C 96 % 1012,5 hPa 0,0 l/m 5,7 km/h (2 Bft) S-SO 150 0 min 0 W/m 0,5 C 1,1 C 11,3 km/h (2 Bft)
21.01.2018 21:42 1,1 C 96 % 1012,7 hPa 0,0 l/m 7,3 km/h (2 Bft) SO 134 0 min 0 W/m 0,5 C 0,2 C 12,9 km/h (3 Bft)
21.01.2018 21:45 1,1 C 96 % 1012,6 hPa 0,0 l/m 7,1 km/h (2 Bft) SO 143 0 min 0 W/m 0,5 C 0,4 C 14,5 km/h (3 Bft)
21.01.2018 21:48 1,1 C 96 % 1012,6 hPa 0,0 l/m 7,0 km/h (2 Bft) S 169 0 min 0 W/m 0,5 C 0,5 C 14,5 km/h (3 Bft)
21.01.2018 21:51 1,0 C 96 % 1012,5 hPa 0,0 l/m 5,4 km/h (2 Bft) SO 130 0 min 0 W/m 0,4 C 1,0 C 8,0 km/h (2 Bft)
21.01.2018 21:54 1,0 C 96 % 1012,5 hPa 0,0 l/m 6,7 km/h (2 Bft) SO 134 0 min 0 W/m 0,4 C 0,7 C 11,3 km/h (2 Bft)
21.01.2018 21:57 1,0 C 96 % 1012,4 hPa 0,0 l/m 6,4 km/h (2 Bft) S-SO 152 0 min 0 W/m 0,4 C 1,0 C 12,9 km/h (3 Bft)
21.01.2018 22:00 1,0 C 96 % 1012,5 hPa 0,0 l/m 6,5 km/h (2 Bft) SO 142 0 min 0 W/m 0,4 C 0,9 C 12,9 km/h (3 Bft)
21.01.2018 22:03 1,0 C 96 % 1012,5 hPa 0,0 l/m 7,3 km/h (2 Bft) O-SO 121 0 min 0 W/m 0,4 C 0,1 C 14,5 km/h (3 Bft)
21.01.2018 22:06 1,0 C 96 % 1012,5 hPa 0,0 l/m 7,0 km/h (2 Bft) SO 137 0 min 0 W/m 0,4 C 0,4 C 16,1 km/h (3 Bft)
21.01.2018 22:09 1,0 C 96 % 1012,5 hPa 0,0 l/m 6,0 km/h (2 Bft) S-SO 150 0 min 0 W/m 0,4 C 1,0 C 14,5 km/h (3 Bft)
21.01.2018 22:12 1,0 C 96 % 1012,5 hPa 0,0 l/m 7,2 km/h (2 Bft) S-SO 167 0 min 0 W/m 0,4 C 0,2 C 12,9 km/h (3 Bft)
21.01.2018 22:15 1,0 C 96 % 1012,5 hPa 0,0 l/m 7,3 km/h (2 Bft) S-SO 165 0 min 0 W/m 0,4 C 0,1 C 16,1 km/h (3 Bft)
21.01.2018 22:18 1,0 C 96 % 1012,5 hPa 0,0 l/m 6,2 km/h (2 Bft) S-SO 148 0 min 0 W/m 0,4 C 1,0 C 12,9 km/h (3 Bft)
21.01.2018 22:21 1,0 C 96 % 1012,5 hPa 0,0 l/m 5,7 km/h (2 Bft) S-SO 165 0 min 0 W/m 0,4 C 1,0 C 12,9 km/h (3 Bft)
21.01.2018 22:24 1,0 C 96 % 1012,6 hPa 0,0 l/m 6,8 km/h (2 Bft) S-SO 150 0 min 0 W/m 0,4 C 0,6 C 14,5 km/h (3 Bft)
21.01.2018 22:27 1,0 C 96 % 1012,6 hPa 0,0 l/m 5,7 km/h (2 Bft) O 101 0 min 0 W/m 0,4 C 1,0 C 9,7 km/h (2 Bft)
21.01.2018 22:30 1,0 C 96 % 1012,5 hPa 0,0 l/m 7,8 km/h (2 Bft) SO 146 0 min 0 W/m 0,4 C -0,4 C 12,9 km/h (3 Bft)
21.01.2018 22:33 1,0 C 96 % 1012,4 hPa 0,0 l/m 6,5 km/h (2 Bft) SO 129 0 min 0 W/m 0,4 C 0,9 C 11,3 km/h (2 Bft)
21.01.2018 22:36 1,0 C 96 % 1012,4 hPa 0,0 l/m 6,4 km/h (2 Bft) SO 140 0 min 0 W/m 0,4 C 1,0 C 14,5 km/h (3 Bft)
21.01.2018 22:39 1,0 C 96 % 1012,3 hPa 0,0 l/m 6,9 km/h (2 Bft) S-SO 149 0 min 0 W/m 0,4 C 0,5 C 14,5 km/h (3 Bft)
21.01.2018 22:42 1,0 C 96 % 1012,3 hPa 0,0 l/m 6,7 km/h (2 Bft) S-SO 155 0 min 0 W/m 0,4 C 0,7 C 12,9 km/h (3 Bft)
21.01.2018 22:45 1,0 C 96 % 1012,3 hPa 0,0 l/m 8,0 km/h (2 Bft) SO 145 0 min 0 W/m 0,4 C -0,6 C 17,7 km/h (3 Bft)
21.01.2018 22:48 1,0 C 96 % 1012,3 hPa 0,0 l/m 7,1 km/h (2 Bft) S-SO 160 0 min 0 W/m 0,4 C 0,3 C 12,9 km/h (3 Bft)
21.01.2018 22:51 1,0 C 96 % 1012,2 hPa 0,0 l/m 6,5 km/h (2 Bft) SO 146 0 min 0 W/m 0,4 C 0,9 C 12,9 km/h (3 Bft)
21.01.2018 22:54 0,9 C 96 % 1012,0 hPa 0,0 l/m 5,9 km/h (2 Bft) SO 146 0 min 0 W/m 0,3 C 0,9 C 8,0 km/h (2 Bft)
21.01.2018 22:57 0,9 C 96 % 1012,0 hPa 0,0 l/m 6,6 km/h (2 Bft) SO 142 0 min 0 W/m 0,3 C 0,7 C 11,3 km/h (2 Bft)
21.01.2018 23:00 0,9 C 96 % 1011,8 hPa 0,0 l/m 8,1 km/h (2 Bft) SO 146 0 min 0 W/m 0,3 C -0,8 C 14,5 km/h (3 Bft)
21.01.2018 23:03 0,9 C 96 % 1011,8 hPa 0,0 l/m 7,0 km/h (2 Bft) S-SO 150 0 min 0 W/m 0,3 C 0,3 C 11,3 km/h (2 Bft)
21.01.2018 23:06 0,9 C 96 % 1011,8 hPa 0,0 l/m 7,2 km/h (2 Bft) SO 142 0 min 0 W/m 0,3 C 0,1 C 16,1 km/h (3 Bft)
21.01.2018 23:09 0,9 C 96 % 1011,8 hPa 0,0 l/m 7,0 km/h (2 Bft) O-SO 113 0 min 0 W/m 0,3 C 0,3 C 12,9 km/h (3 Bft)
21.01.2018 23:12 0,9 C 96 % 1011,8 hPa 0,0 l/m 7,6 km/h (2 Bft) O-SO 116 0 min 0 W/m 0,3 C -0,3 C 14,5 km/h (3 Bft)
21.01.2018 23:15 0,9 C 96 % 1011,7 hPa 0,0 l/m 7,5 km/h (2 Bft) O-SO 115 0 min 0 W/m 0,3 C -0,2 C 12,9 km/h (3 Bft)
21.01.2018 23:18 0,9 C 96 % 1011,8 hPa 0,0 l/m 7,1 km/h (2 Bft) SO 128 0 min 0 W/m 0,3 C 0,2 C 16,1 km/h (3 Bft)
21.01.2018 23:21 0,9 C 96 % 1011,7 hPa 0,0 l/m 8,1 km/h (2 Bft) S-SO 164 0 min 0 W/m 0,3 C -0,8 C 14,5 km/h (3 Bft)
21.01.2018 23:24 0,9 C 96 % 1011,6 hPa 0,0 l/m 6,4 km/h (2 Bft) SO 130 0 min 0 W/m 0,3 C 0,9 C 9,7 km/h (2 Bft)
21.01.2018 23:27 1,0 C 96 % 1011,7 hPa 0,0 l/m 6,8 km/h (2 Bft) SO 128 0 min 0 W/m 0,4 C 0,6 C 11,3 km/h (2 Bft)
21.01.2018 23:30 1,0 C 96 % 1011,6 hPa 0,0 l/m 6,5 km/h (2 Bft) SO 126 0 min 0 W/m 0,4 C 0,9 C 14,5 km/h (3 Bft)
21.01.2018 23:33 1,0 C 96 % 1011,6 hPa 0,0 l/m 6,3 km/h (2 Bft) SO 140 0 min 0 W/m 0,4 C 1,0 C 12,9 km/h (3 Bft)
21.01.2018 23:36 1,0 C 96 % 1011,5 hPa 0,0 l/m 6,8 km/h (2 Bft) SO 135 0 min 0 W/m 0,4 C 0,6 C 14,5 km/h (3 Bft)
21.01.2018 23:39 1,0 C 96 % 1011,6 hPa 0,0 l/m 7,6 km/h (2 Bft) O-SO 123 0 min 0 W/m 0,4 C -0,2 C 14,5 km/h (3 Bft)
21.01.2018 23:42 1,0 C 96 % 1011,6 hPa 0,0 l/m 6,4 km/h (2 Bft) S-SO 157 0 min 0 W/m 0,4 C 1,0 C 14,5 km/h (3 Bft)
21.01.2018 23:45 1,0 C 96 % 1011,5 hPa 0,0 l/m 6,0 km/h (2 Bft) S-SO 153 0 min 0 W/m 0,4 C 1,0 C 11,3 km/h (2 Bft)
21.01.2018 23:48 1,0 C 96 % 1011,4 hPa 0,0 l/m 6,2 km/h (2 Bft) O-SO 111 0 min 0 W/m 0,4 C 1,0 C 14,5 km/h (3 Bft)
21.01.2018 23:51 1,1 C 96 % 1011,4 hPa 0,0 l/m 7,6 km/h (2 Bft) S-SO 165 0 min 0 W/m 0,5 C -0,1 C 14,5 km/h (3 Bft)
21.01.2018 23:54 1,1 C 96 % 1011,3 hPa 0,0 l/m 9,3 km/h (2 Bft) SO 132 0 min 0 W/m 0,5 C -1,7 C 20,9 km/h (4 Bft)
21.01.2018 23:57 1,1 C 96 % 1011,3 hPa 0,0 l/m 9,3 km/h (2 Bft) S-SO 151 0 min 0 W/m 0,5 C -1,7 C 16,1 km/h (3 Bft)
_ Min-Zeit 00:21 00:00 00:00 - 04:39 - - - - 00:24 23:54 04:39
Minimum _ 0,3 C 96 % 1001,4 hPa - 0,0 km/h (0 Bft) - - - - -0,3 C -1,7 C 0,0 km/h (0 Bft)
_ Max-Zeit 12:18 03:24 16:24 04:24 23:54 - - 00:00 11:57 12:03 12:03 23:54
Maximum _ 2,2 C 97 % 1014,5 hPa 0,2 l/m 9,3 km/h
SO (2 Bft)
- - 0 min 130 W/m 1,7 C 2,1 C 20,9 km/h
S-SO (4 Bft)
Durchschnitt _ 1,1 C 97 % 1010,1 hPa #0,4 l/m 3,3 km/h (1 Bft) SO - #0 min. 43 W/m 0,7 C 1,0 C 6,8 km/h (2 Bft)
2018 Cux-Wetter.de -Die Nutzung der Wetterdaten nur mit ausdrcklicher Genehmigung